M I D A S
Marine Information and Data Acquisition System
Tripno 2281 of the Zeeleeuw from 2012-03-27 06:35:23 to 2012-03-27 13:54:23
Back to CruiseResearch ActivitiesStationsMapUnderway DataData graphs

EquipmentUnitsComment
TimeDGPSUTC
LatitudeDGPSDM.mWGS84
LongitudeDGPSDM.mWGS84
TemperatureSBE03/SBE38deg celciusITS90
ConductivitySBE21S/mITS90
SalinitySBE21 Practical Salinity Units
ChlorophylAChelsea fluorimeterg/lCalibrated in Aceton
Missing or incorrect values are displayed as -999
Sea surface data collected by the RV Zeeleeuw from 2012-03-27 06:24:12 to 2012-03-27 14:08:26
                                                                                    Next 1000 lines
Time Latitude Longitude Temperature Conductivity Salinity ChlorophylA
2012-03-27 06:24:22 51°13.635 2°56.017 14.9805 1.98884 13.875112 -2.458615
2012-03-27 06:24:27 51°13.635 2°56.017 14.9803 1.98884 13.875112 -2.458615
2012-03-27 06:24:32 51°13.635 2°56.017 14.981 1.98884 13.875112 -2.458615
2012-03-27 06:24:36 51°13.635 2°56.017 14.9823 1.98884 13.875112 -2.458615
2012-03-27 06:24:41 51°13.635 2°56.017 14.9844 1.98884 13.875379 -2.458615
2012-03-27 06:24:46 51°13.635 2°56.018 14.9861 1.98884 13.875379 -2.458615
2012-03-27 06:24:52 51°13.635 2°56.018 14.9866 1.988944 13.876164 -2.458615
2012-03-27 06:24:56 51°13.635 2°56.018 14.988 1.988944 13.876164 -2.458615
2012-03-27 06:25:01 51°13.635 2°56.018 14.9881 1.98884 13.875379 -2.458615
2012-03-27 06:25:07 51°13.635 2°56.018 14.9892 1.98884 13.875379 -2.458615
2012-03-27 06:25:12 51°13.635 2°56.017 14.9894 1.98884 13.875379 -2.458615
2012-03-27 06:25:16 51°13.635 2°56.018 14.9887 1.98884 13.875379 -2.458615
2012-03-27 06:25:21 51°13.635 2°56.017 14.9865 1.98884 13.875379 -2.458615
2012-03-27 06:25:26 51°13.635 2°56.017 14.9875 1.98884 13.875379 -2.458615
2012-03-27 06:25:32 51°13.635 2°56.017 14.9876 1.98884 13.875379 -2.458615
2012-03-27 06:25:36 51°13.635 2°56.018 14.9855 1.98884 13.875379 -2.458615
2012-03-27 06:25:41 51°13.635 2°56.018 14.9878 1.98884 13.875646 -2.458615
2012-03-27 06:25:47 51°13.635 2°56.018 14.9879 1.98884 13.875646 -2.458615
2012-03-27 06:25:52 51°13.635 2°56.017 14.9881 1.98884 13.875646 -2.458615
2012-03-27 06:25:57 51°13.635 2°56.017 14.9882 1.98884 13.875646 -2.458615
2012-03-27 06:26:02 51°13.635 2°56.017 14.9921 1.98884 13.875646 -2.458615
2012-03-27 06:26:07 51°13.635 2°56.017 14.9924 1.98884 13.875646 -2.458615
2012-03-27 06:26:12 51°13.635 2°56.017 14.9914 1.98884 13.875646 -2.458615
2012-03-27 06:26:17 51°13.635 2°56.017 14.9928 1.98884 13.875646 -2.458615
2012-03-27 06:26:22 51°13.635 2°56.017 14.9947 1.98884 13.875646 -2.458615
2012-03-27 06:26:27 51°13.636 2°56.017 14.9947 1.98884 13.875646 -2.458615
2012-03-27 06:26:32 51°13.636 2°56.017 14.9939 1.98884 13.875646 -2.458615
2012-03-27 06:26:37 51°13.636 2°56.017 14.9929 1.98884 13.875914 -2.458615
2012-03-27 06:26:42 51°13.636 2°56.017 14.9942 1.98884 13.875914 -2.458615
2012-03-27 06:26:46 51°13.636 2°56.017 14.994 1.98884 13.875914 -2.458615
2012-03-27 06:26:51 51°13.636 2°56.017 14.9938 1.98884 13.875646 -2.458615
2012-03-27 06:26:57 51°13.636 2°56.017 14.994 1.98884 13.875914 -2.458615
2012-03-27 06:27:02 51°13.636 2°56.017 14.9937 1.98884 13.875914 -2.458615
2012-03-27 06:27:07 51°13.636 2°56.017 14.9938 1.98884 13.875914 -2.458615
2012-03-27 06:27:12 51°13.636 2°56.017 14.9921 1.98884 13.875914 -2.458615
2012-03-27 06:27:17 51°13.636 2°56.017 14.9922 1.98884 13.875914 -2.458615
2012-03-27 06:27:22 51°13.636 2°56.017 14.9929 1.98884 13.875914 -2.458615
2012-03-27 06:27:26 51°13.636 2°56.017 14.9943 1.98884 13.875914 -2.458615
2012-03-27 06:27:31 51°13.636 2°56.017 14.9967 1.98884 13.875914 -2.458615
2012-03-27 06:27:36 51°13.636 2°56.017 14.997 1.98884 13.875914 -2.458615
2012-03-27 06:27:42 51°13.636 2°56.017 14.9984 1.98884 13.875914 -2.458615
2012-03-27 06:27:47 51°13.636 2°56.017 14.9984 1.98884 13.875914 -2.458615
2012-03-27 06:27:51 51°13.636 2°56.017 14.9976 1.98884 13.875914 -2.458615
2012-03-27 06:27:56 51°13.636 2°56.017 14.9969 1.98884 13.875914 -2.458615
2012-03-27 06:28:01 51°13.636 2°56.017 14.9975 1.98884 13.875914 -2.458615
2012-03-27 06:28:06 51°13.636 2°56.017 14.9987 1.98884 13.875914 -2.458615
2012-03-27 06:28:11 51°13.636 2°56.017 14.9973 1.98884 13.875914 -2.458615
2012-03-27 06:28:16 51°13.636 2°56.017 14.9992 1.98884 13.875914 -2.458615
2012-03-27 06:28:21 51°13.636 2°56.017 15.0005 1.98884 13.875914 -2.458615
2012-03-27 06:28:26 51°13.636 2°56.017 15 1.98884 13.876181 -2.458615
2012-03-27 06:28:31 51°13.636 2°56.017 15 1.98884 13.876181 -2.458615
2012-03-27 06:28:36 51°13.636 2°56.017 14.999 1.98884 13.875914 -2.458615
2012-03-27 06:28:41 51°13.636 2°56.017 14.9961 1.988737 13.875396 -2.458615
2012-03-27 06:28:47 51°13.636 2°56.017 14.9973 1.988737 13.875396 -2.458615
2012-03-27 06:28:52 51°13.636 2°56.017 14.9973 1.988737 13.875396 -2.458615
2012-03-27 06:28:56 51°13.636 2°56.017 14.9964 1.988737 13.875396 -2.458615
2012-03-27 06:29:01 51°13.636 2°56.017 14.9981 1.988737 13.875396 -2.458615
2012-03-27 06:29:06 51°13.636 2°56.017 14.9984 1.988737 13.875396 -2.458615
2012-03-27 06:29:11 51°13.636 2°56.017 14.9986 1.988737 13.875396 -2.458615
2012-03-27 06:29:16 51°13.636 2°56.018 14.9988 1.988737 13.875396 -2.458615
2012-03-27 06:29:22 51°13.636 2°56.018 15.0029 1.98884 13.876181 -2.458615
2012-03-27 06:29:26 51°13.636 2°56.018 15.0032 1.98884 13.876449 -2.458615
2012-03-27 06:29:32 51°13.637 2°56.018 15.0055 1.988737 13.875663 -2.458615
2012-03-27 06:29:36 51°13.636 2°56.018 15.0049 1.988737 13.875396 -2.458615
2012-03-27 06:29:41 51°13.636 2°56.018 15.0072 1.98884 13.876449 -2.458615
2012-03-27 06:29:46 51°13.636 2°56.018 15.0065 1.98884 13.876449 -2.458615
2012-03-27 06:29:51 51°13.636 2°56.018 15.0061 1.98884 13.876449 -2.458615
2012-03-27 06:29:57 51°13.636 2°56.018 14.9965 1.98884 13.876449 -2.458615
2012-03-27 06:30:02 51°13.636 2°56.018 14.9935 1.98884 13.876449 -2.458615
2012-03-27 06:30:06 51°13.636 2°56.018 14.9984 1.988737 13.875663 -2.458615
2012-03-27 06:30:11 51°13.636 2°56.018 14.9987 1.988737 13.875663 -2.458615
2012-03-27 06:30:17 51°13.637 2°56.018 14.9998 1.988737 13.875663 -2.458615
2012-03-27 06:30:22 51°13.636 2°56.017 14.9994 1.988737 13.875663 -2.458615
2012-03-27 06:30:26 51°13.636 2°56.017 15.0011 1.988737 13.875663 -2.458615
2012-03-27 06:30:31 51°13.637 2°56.018 15.0032 1.988737 13.875663 -2.458615
2012-03-27 06:30:36 51°13.636 2°56.018 15.0027 1.988737 13.875663 -2.458615
2012-03-27 06:30:42 51°13.634 2°56.019 15.0024 1.988737 13.875931 -2.458615
2012-03-27 06:30:47 51°13.633 2°56.019 15.0046 1.988737 13.875931 -2.458615
2012-03-27 06:30:52 51°13.633 2°56.019 15.0069 1.988737 13.875931 -2.458615
2012-03-27 06:30:56 51°13.633 2°56.019 15.0147 1.988737 13.875931 -2.458615
2012-03-27 06:31:01 51°13.633 2°56.019 15.0179 1.988634 13.875146 -2.458615
2012-03-27 06:31:06 51°13.634 2°56.019 15.0135 1.98884 13.876716 -2.458615
2012-03-27 06:31:11 51°13.634 2°56.019 15.0067 1.988737 13.876198 -2.458615
2012-03-27 06:31:15 51°13.634 2°56.019 15.0202 1.988737 13.876198 -2.458615
2012-03-27 06:31:21 51°13.634 2°56.019 15.0288 1.98884 13.876716 -2.458615
2012-03-27 06:31:27 51°13.634 2°56.018 15.0279 1.988634 13.875413 -2.458615
2012-03-27 06:31:32 51°13.634 2°56.018 15.0152 1.988531 13.874628 -2.458615
2012-03-27 06:31:36 51°13.634 2°56.018 15.036 1.988634 13.875413 -2.458615
2012-03-27 06:31:41 51°13.634 2°56.018 15.0173 1.98884 13.876983 -2.458615
2012-03-27 06:31:46 51°13.634 2°56.018 15.0183 1.98884 13.876983 -2.458615
2012-03-27 06:31:51 51°13.633 2°56.018 14.9973 1.98884 13.876983 -2.458615
2012-03-27 06:31:56 51°13.634 2°56.018 14.9941 1.988737 13.876198 -2.458615
2012-03-27 06:32:02 51°13.634 2°56.019 15 1.988737 13.876198 -2.458615
2012-03-27 06:32:06 51°13.634 2°56.019 15.0009 1.988737 13.876198 -2.458615
2012-03-27 06:32:11 51°13.635 2°56.019 15.0044 1.988737 13.876466 -2.458615
2012-03-27 06:32:16 51°13.635 2°56.019 15.0077 1.988737 13.876466 -2.458615
2012-03-27 06:32:21 51°13.635 2°56.019 15.0112 1.988737 13.876466 -2.458615
2012-03-27 06:32:26 51°13.635 2°56.019 15.0108 1.988737 13.876466 -2.458615
2012-03-27 06:32:31 51°13.635 2°56.019 15.0133 1.988634 13.875681 -2.458615
2012-03-27 06:32:37 51°13.635 2°56.019 15.0141 1.988634 13.875681 -2.458615
2012-03-27 06:32:42 51°13.635 2°56.019 15.0143 1.988737 13.876733 -2.458615
2012-03-27 06:32:47 51°13.635 2°56.019 15.0171 1.988737 13.876733 -2.458615
2012-03-27 06:32:51 51°13.635 2°56.019 15.0208 1.988634 13.875681 -2.458615
2012-03-27 06:32:57 51°13.636 2°56.019 15.0192 1.988737 13.876733 -2.458615
2012-03-27 06:33:02 51°13.636 2°56.019 15.023 1.988737 13.876733 -2.458615
2012-03-27 06:33:07 51°13.636 2°56.018 15.0264 1.988737 13.876733 -2.458615
2012-03-27 06:33:11 51°13.636 2°56.018 15.0246 1.988634 13.875948 -2.458615
2012-03-27 06:33:17 51°13.636 2°56.018 15.0252 1.988634 13.875948 -2.458615
2012-03-27 06:33:22 51°13.636 2°56.019 14.9498 1.988634 13.875948 -2.458615
2012-03-27 06:33:27 51°13.636 2°56.018 14.9289 1.989253 13.880659 -2.458615
2012-03-27 06:33:31 51°13.636 2°56.018 14.8664 1.989873 13.886173 -2.458615
2012-03-27 06:33:37 51°13.635 2°56.019 14.8705 1.989976 13.887226 -2.458615
2012-03-27 06:33:42 51°13.634 2°56.019 14.8807 1.990079 13.888011 -2.458615
2012-03-27 06:33:46 51°13.634 2°56.019 14.8887 1.990079 13.888011 -2.458615
2012-03-27 06:33:51 51°13.635 2°56.019 14.9004 1.990079 13.888011 -2.458615
2012-03-27 06:33:56 51°13.635 2°56.019 14.9089 1.990182 13.889064 -2.458615
2012-03-27 06:34:02 51°13.635 2°56.019 14.9157 1.990182 13.888796 -2.458615
2012-03-27 06:34:06 51°13.635 2°56.019 14.9225 1.990182 13.888796 -2.458615
2012-03-27 06:34:11 51°13.635 2°56.019 14.9142 1.990182 13.889064 -2.458615
2012-03-27 06:34:16 51°13.635 2°56.019 14.9109 1.990182 13.889064 -2.458615
2012-03-27 06:34:22 51°13.635 2°56.019 14.9135 1.990079 13.888279 -2.458615
2012-03-27 06:34:26 51°13.635 2°56.019 14.9176 1.990079 13.888011 -2.458615
2012-03-27 06:34:31 51°13.635 2°56.019 14.9217 1.990182 13.889064 -2.458615
2012-03-27 06:34:36 51°13.635 2°56.019 14.9268 1.990182 13.889064 -2.458615
2012-03-27 06:34:42 51°13.635 2°56.019 14.9331 1.990182 13.889064 -2.458615
2012-03-27 06:34:46 51°13.635 2°56.019 14.9406 1.990182 13.889064 -2.458615
2012-03-27 06:34:51 51°13.635 2°56.019 14.9472 1.990182 13.889332 -2.458615
2012-03-27 06:34:56 51°13.635 2°56.019 14.9525 1.990182 13.889332 -2.458615
2012-03-27 06:35:02 51°13.635 2°56.019 14.9582 1.990182 13.889332 -2.458615
2012-03-27 06:35:06 51°13.635 2°56.019 14.9636 1.990285 13.890117 -2.458615
2012-03-27 06:35:11 51°13.635 2°56.019 14.9669 1.990285 13.890385 -2.458615
2012-03-27 06:35:16 51°13.635 2°56.019 14.9701 1.990285 13.890385 -2.458615
2012-03-27 06:35:21 51°13.635 2°56.019 14.9706 1.990285 13.890117 -2.458615
2012-03-27 06:35:27 51°13.635 2°56.019 14.9726 1.990285 13.890117 -2.458615
2012-03-27 06:35:31 51°13.635 2°56.019 14.9763 1.990285 13.890385 -2.458615
2012-03-27 06:35:36 51°13.634 2°56.019 14.9795 1.990285 13.890385 -2.458615
2012-03-27 06:35:41 51°13.634 2°56.019 14.9816 1.990285 13.890385 -2.458615
2012-03-27 06:35:47 51°13.635 2°56.019 14.9842 1.990285 13.890385 -2.458615
2012-03-27 06:35:51 51°13.635 2°56.019 14.9858 1.990285 13.890385 -2.458615
2012-03-27 06:35:56 51°13.635 2°56.019 14.9846 1.990285 13.890652 -2.458615
2012-03-27 06:36:02 51°13.635 2°56.019 14.987 1.990389 13.891438 -2.458615
2012-03-27 06:36:06 51°13.635 2°56.019 14.9838 1.990285 13.890652 -2.458615
2012-03-27 06:36:11 51°13.635 2°56.019 14.9849 1.990285 13.890652 -2.458615
2012-03-27 06:36:16 51°13.635 2°56.019 14.9818 1.990285 13.890652 -2.458615
2012-03-27 06:36:21 51°13.635 2°56.019 14.9822 1.990285 13.890652 -2.458615
2012-03-27 06:36:26 51°13.635 2°56.019 14.9816 1.990285 13.890652 -2.458615
2012-03-27 06:36:31 51°13.635 2°56.019 14.9853 1.990285 13.890652 -2.458615
2012-03-27 06:36:36 51°13.635 2°56.019 14.9847 1.990285 13.890652 -2.458615
2012-03-27 06:36:42 51°13.635 2°56.019 14.9896 1.990285 13.89092 -2.458615
2012-03-27 06:36:46 51°13.635 2°56.019 14.9896 1.990285 13.89092 -2.458615
2012-03-27 06:36:51 51°13.635 2°56.019 14.9923 1.990285 13.89092 -2.458615
2012-03-27 06:36:56 51°13.635 2°56.019 14.9927 1.990285 13.89092 -2.458615
2012-03-27 06:37:02 51°13.635 2°56.019 14.9937 1.990285 13.89092 -2.458615
2012-03-27 06:37:06 51°13.635 2°56.019 14.9981 1.990285 13.89092 -2.458615
2012-03-27 06:37:11 51°13.635 2°56.019 14.9977 1.990285 13.89092 -2.458615
2012-03-27 06:37:16 51°13.635 2°56.019 15.0041 1.990285 13.89092 -2.458615
2012-03-27 06:37:22 51°13.634 2°56.019 15.006 1.990389 13.891973 -2.458615
2012-03-27 06:37:26 51°13.634 2°56.019 15.0083 1.990389 13.891973 -2.458615
2012-03-27 06:37:31 51°13.634 2°56.019 15.0097 1.990492 13.892759 -2.458615
2012-03-27 06:37:36 51°13.634 2°56.019 15.0121 1.990492 13.892759 -2.458615
2012-03-27 06:37:41 51°13.635 2°56.019 15.0165 1.990492 13.893026 -2.458615
2012-03-27 06:37:46 51°13.635 2°56.019 15.0261 1.990492 13.893026 -2.458615
2012-03-27 06:37:51 51°13.634 2°56.019 15.029 1.990492 13.893294 -2.458615
2012-03-27 06:37:56 51°13.634 2°56.019 15.0317 1.990595 13.89408 -2.458615
2012-03-27 06:38:01 51°13.634 2°56.019 15.0327 1.990595 13.89408 -2.458615
2012-03-27 06:38:06 51°13.634 2°56.019 15.0302 1.990595 13.89408 -2.458615
2012-03-27 06:38:11 51°13.634 2°56.019 15.0268 1.990492 13.893294 -2.458615
2012-03-27 06:38:16 51°13.634 2°56.019 15.021 1.990492 13.893294 -2.458615
2012-03-27 06:38:21 51°13.634 2°56.019 15.0192 1.990492 13.893294 -2.458615
2012-03-27 06:38:26 51°13.633 2°56.018 15.0006 1.990492 13.893294 -2.458615
2012-03-27 06:38:31 51°13.633 2°56.018 14.8926 1.990285 13.891723 -2.458615
2012-03-27 06:38:36 51°13.634 2°56.017 14.8654 1.989976 13.888832 -2.458615
2012-03-27 06:38:41 51°13.634 2°56.016 14.8969 1.990389 13.891973 -2.458615
2012-03-27 06:38:46 51°13.634 2°56.013 14.9713 1.990389 13.891973 -2.458615
2012-03-27 06:38:51 51°13.635 2°56.01 14.9769 1.990595 13.893544 -2.458615
2012-03-27 06:38:56 51°13.635 2°56.007 14.9704 1.991111 13.897739 -2.458615
2012-03-27 06:39:01 51°13.637 2°56.001 14.9863 1.991318 13.899578 -2.458615
2012-03-27 06:39:06 51°13.638 2°55.996 14.9681 1.990802 13.895918 -2.458615
2012-03-27 06:39:11 51°13.64 2°55.99 14.9866 1.991111 13.898275 -2.458615
2012-03-27 06:39:16 51°13.641 2°55.985 15.0446 1.991111 13.898275 -2.458615
2012-03-27 06:39:22 51°13.642 2°55.977 15.0357 1.991111 13.898543 -2.458615
2012-03-27 06:39:26 51°13.643 2°55.971 15.0417 1.991214 13.899328 -2.458615
2012-03-27 06:39:31 51°13.645 2°55.964 15.0496 1.991111 13.898811 -2.458615
2012-03-27 06:39:36 51°13.646 2°55.957 15.0311 1.991318 13.900382 -2.458615
2012-03-27 06:39:42 51°13.648 2°55.949 15.0264 1.991111 13.899079 -2.458615
2012-03-27 06:39:47 51°13.65 2°55.941 15.0595 1.991111 13.899079 -2.458615
2012-03-27 06:39:51 51°13.652 2°55.935 15.0413 1.991318 13.90065 -2.458615
2012-03-27 06:39:56 51°13.653 2°55.926 15.0144 1.991318 13.90065 -2.458615
2012-03-27 06:40:01 51°13.655 2°55.918 15.0084 1.991318 13.900918 -2.458615
2012-03-27 06:40:07 51°13.658 2°55.908 15.0503 1.991214 13.900132 -2.458615
2012-03-27 06:40:11 51°13.66 2°55.902 15.0187 1.991318 13.900918 -2.458615
2012-03-27 06:40:16 51°13.662 2°55.893 15.0231 1.991318 13.900918 -2.458615
2012-03-27 06:40:21 51°13.665 2°55.884 15.049 1.991111 13.899079 -2.458615
2012-03-27 06:40:26 51°13.667 2°55.875 15.0511 1.991524 13.902489 -2.458615
2012-03-27 06:40:31 51°13.671 2°55.866 15.016 1.991318 13.900918 -2.458615
2012-03-27 06:40:36 51°13.674 2°55.856 15.0379 1.991524 13.902757 -2.458615
2012-03-27 06:40:41 51°13.678 2°55.848 15.043 1.991318 13.901186 -2.458615
2012-03-27 06:40:46 51°13.681 2°55.839 15.0534 1.991318 13.901186 -2.458615
2012-03-27 06:40:51 51°13.685 2°55.829 15.0494 1.991318 13.901186 -2.458615
2012-03-27 06:40:56 51°13.689 2°55.821 15.0413 1.991318 13.901454 -2.458615
2012-03-27 06:41:01 51°13.694 2°55.812 15.0464 1.991524 13.903025 -2.458615
2012-03-27 06:41:06 51°13.698 2°55.803 15.0592 1.991627 13.904078 -2.458615
2012-03-27 06:41:11 51°13.703 2°55.794 15.0554 1.99173 13.904864 -2.458615
2012-03-27 06:41:16 51°13.707 2°55.786 15.0652 1.99173 13.904864 -2.458615
2012-03-27 06:41:22 51°13.713 2°55.776 15.0678 1.991834 13.905649 -2.458615
2012-03-27 06:41:26 51°13.718 2°55.77 15.0635 1.99173 13.904864 -2.458615
2012-03-27 06:41:31 51°13.722 2°55.762 15.0607 1.991834 13.905918 -2.458615
2012-03-27 06:41:36 51°13.728 2°55.754 15.0538 1.99173 13.904864 -2.458615
2012-03-27 06:41:42 51°13.734 2°55.744 15.0494 1.99173 13.904864 -2.458615
2012-03-27 06:41:46 51°13.738 2°55.737 15.0421 1.99173 13.904864 -2.458615
2012-03-27 06:41:51 51°13.743 2°55.729 15.0284 1.991627 13.904078 -2.458615
2012-03-27 06:41:56 51°13.748 2°55.722 15.0217 1.991627 13.904078 -2.458615
2012-03-27 06:42:01 51°13.754 2°55.714 14.994 1.991421 13.902507 -2.458615
2012-03-27 06:42:07 51°13.76 2°55.704 15.0202 1.991524 13.903293 -2.458615
2012-03-27 06:42:11 51°13.765 2°55.698 15.0438 1.991524 13.903293 -2.458615
2012-03-27 06:42:16 51°13.771 2°55.69 15.0956 1.991524 13.903293 -2.458615
2012-03-27 06:42:21 51°13.776 2°55.683 15.0606 1.991421 13.902507 -2.458615
2012-03-27 06:42:27 51°13.784 2°55.674 15.0555 1.991318 13.90199 -2.458615
2012-03-27 06:42:31 51°13.788 2°55.668 15.0591 1.991524 13.903561 -2.458615
2012-03-27 06:42:36 51°13.794 2°55.662 15.0505 1.991421 13.902775 -2.458615
2012-03-27 06:42:41 51°13.801 2°55.656 15.0473 1.991421 13.902775 -2.458615
2012-03-27 06:42:46 51°13.807 2°55.65 15.0568 1.991421 13.902775 -2.458615
2012-03-27 06:42:51 51°13.814 2°55.645 15.0561 1.991524 13.903829 -2.458615
2012-03-27 06:42:56 51°13.821 2°55.64 15.0625 1.991524 13.903829 -2.458615
2012-03-27 06:43:01 51°13.828 2°55.635 15.0245 1.991421 13.903311 -2.458615
2012-03-27 06:43:06 51°13.835 2°55.631 15.0092 1.991318 13.902526 -2.458615
2012-03-27 06:43:11 51°13.842 2°55.628 15.0195 1.991421 13.903311 -2.458615
2012-03-27 06:43:16 51°13.849 2°55.625 15.0361 1.991421 13.903311 -2.458615
2012-03-27 06:43:22 51°13.858 2°55.622 15.0464 1.991421 13.903311 -2.458615
2012-03-27 06:43:26 51°13.864 2°55.62 15.0444 1.991214 13.90174 -2.458615
2012-03-27 06:43:31 51°13.872 2°55.619 15.0709 1.991421 13.903579 -2.458615
2012-03-27 06:43:36 51°13.879 2°55.618 15.08 1.991421 13.903579 -2.458615
2012-03-27 06:43:42 51°13.887 2°55.617 15.0666 1.99173 13.905936 -2.458615
2012-03-27 06:43:46 51°13.893 2°55.617 15.0787 1.99173 13.905936 -2.458615
2012-03-27 06:43:51 51°13.9 2°55.618 15.0623 1.991627 13.905419 -2.458615
2012-03-27 06:43:56 51°13.908 2°55.619 15.0535 1.991421 13.903848 -2.458615
2012-03-27 06:44:02 51°13.915 2°55.621 15.0478 1.991318 13.903062 -2.458615
2012-03-27 06:44:07 51°13.922 2°55.623 15.0482 1.991318 13.903062 -2.458615
2012-03-27 06:44:11 51°13.927 2°55.625 15.0514 1.991421 13.903848 -2.458615
2012-03-27 06:44:16 51°13.933 2°55.627 15.059 1.991421 13.903848 -2.458615
2012-03-27 06:44:21 51°13.938 2°55.63 15.0584 1.991318 13.903062 -2.458615
2012-03-27 06:44:27 51°13.945 2°55.634 15.0671 1.991421 13.903848 -2.458615
2012-03-27 06:44:31 51°13.949 2°55.636 15.0544 1.991421 13.904116 -2.458615
2012-03-27 06:44:36 51°13.953 2°55.639 15.0699 1.991524 13.904901 -2.458615
2012-03-27 06:44:41 51°13.958 2°55.643 15.0667 1.991421 13.904116 -2.458615
2012-03-27 06:44:46 51°13.962 2°55.646 15.1328 1.991421 13.904116 -2.458615
2012-03-27 06:44:51 51°13.965 2°55.649 15.1108 1.991834 13.907527 -2.458615
2012-03-27 06:44:56 51°13.968 2°55.651 15.1016 1.991421 13.904384 -2.458615
2012-03-27 06:45:01 51°13.971 2°55.654 15.0835 1.991524 13.905169 -2.458615
2012-03-27 06:45:06 51°13.974 2°55.657 15.0753 1.991524 13.904901 -2.458615
2012-03-27 06:45:11 51°13.975 2°55.658 15.0654 1.991421 13.904116 -2.458615
2012-03-27 06:45:16 51°13.977 2°55.66 15.0488 1.991421 13.904116 -2.458615
2012-03-27 06:45:22 51°13.978 2°55.662 15.0631 1.991318 13.90333 -2.458615
2012-03-27 06:45:26 51°13.979 2°55.662 15.0803 1.991318 13.903062 -2.458615
2012-03-27 06:45:31 51°13.98 2°55.662 15.1013 1.991524 13.904901 -2.458615
2012-03-27 06:45:36 51°13.98 2°55.661 15.0855 1.991421 13.904116 -2.458615
2012-03-27 06:45:42 51°13.981 2°55.659 15.0715 1.991214 13.902544 -2.458615
2012-03-27 06:45:46 51°13.981 2°55.658 15.0705 1.991214 13.902544 -2.458615
2012-03-27 06:45:51 51°13.981 2°55.655 15.0424 1.991008 13.900973 -2.458615
2012-03-27 06:45:56 51°13.981 2°55.652 14.8739 1.990698 13.898616 -2.458615
2012-03-27 06:46:02 51°13.981 2°55.648 14.7078 1.98946 13.888653 -2.458615
2012-03-27 06:46:07 51°13.982 2°55.644 14.6943 1.98977 13.890742 -2.458615
2012-03-27 06:46:11 51°13.983 2°55.641 14.6051 1.989873 13.891795 -2.458615
2012-03-27 06:46:16 51°13.984 2°55.636 14.7549 1.989873 13.891795 -2.458615
2012-03-27 06:46:22 51°13.986 2°55.63 14.8423 1.991318 13.90333 -2.458615
2012-03-27 06:46:27 51°13.988 2°55.625 14.9705 1.992247 13.911474 -2.458615
2012-03-27 06:46:31 51°13.991 2°55.62 14.9754 1.994001 13.925907 -2.458615
2012-03-27 06:46:36 51°13.993 2°55.613 14.9789 1.994311 13.928533 -2.458615
2012-03-27 06:46:41 51°13.997 2°55.605 14.9803 1.993898 13.92539 -2.458615
2012-03-27 06:46:47 51°14.001 2°55.596 14.9545 1.993898 13.92539 -2.458615
2012-03-27 06:46:51 51°14.004 2°55.589 14.9543 1.993692 13.923281 -2.458615
2012-03-27 06:46:56 51°14.009 2°55.58 14.9075 1.993485 13.921172 -2.458615
2012-03-27 06:47:01 51°14.014 2°55.57 14.8806 1.993175 13.918546 -2.458615
2012-03-27 06:47:06 51°14.02 2°55.561 14.8364 1.992866 13.915652 -2.458615
2012-03-27 06:47:11 51°14.025 2°55.551 14.8027 1.992453 13.911973 -2.458615
2012-03-27 06:47:16 51°14.032 2°55.54 14.7293 1.992453 13.911973 -2.458615
2012-03-27 06:47:21 51°14.038 2°55.53 14.7303 1.991937 13.907508 -2.458615
2012-03-27 06:47:26 51°14.046 2°55.52 14.6428 1.991524 13.903829 -2.458615
2012-03-27 06:47:31 51°14.054 2°55.51 14.6234 1.991111 13.900686 -2.458615
2012-03-27 06:47:36 51°14.062 2°55.5 14.6329 1.991524 13.903829 -2.458615
2012-03-27 06:47:41 51°14.071 2°55.49 14.7212 1.991421 13.903311 -2.458615
2012-03-27 06:47:46 51°14.08 2°55.481 14.7319 1.991421 13.903311 -2.458615
2012-03-27 06:47:51 51°14.089 2°55.471 14.7615 1.991318 13.902794 -2.458615
2012-03-27 06:47:56 51°14.099 2°55.461 14.7745 1.991214 13.902008 -2.458615
2012-03-27 06:48:02 51°14.11 2°55.449 14.6814 1.990389 13.895723 -2.458615
2012-03-27 06:48:07 51°14.121 2°55.439 14.7195 1.991008 13.900169 -2.458615
2012-03-27 06:48:11 51°14.129 2°55.431 14.7195 1.991111 13.901223 -2.458615
2012-03-27 06:48:16 51°14.139 2°55.42 14.7209 1.991111 13.901223 -2.458615
2012-03-27 06:48:22 51°14.152 2°55.407 14.6706 1.989976 13.892313 -2.458615
2012-03-27 06:48:26 51°14.161 2°55.399 14.5978 1.990389 13.895187 -2.458615
2012-03-27 06:48:31 51°14.172 2°55.388 14.6719 1.991627 13.904883 -2.458615
2012-03-27 06:48:36 51°14.183 2°55.377 14.6647 1.991421 13.903579 -2.458615
2012-03-27 06:48:41 51°14.194 2°55.367 14.6093 1.991111 13.901223 -2.458615
2012-03-27 06:48:46 51°14.205 2°55.355 14.6474 1.991111 13.901223 -2.458615
2012-03-27 06:48:51 51°14.216 2°55.344 14.6457 1.991111 13.901223 -2.458615
2012-03-27 06:48:56 51°14.228 2°55.332 14.7993 1.991214 13.902008 -2.458615
2012-03-27 06:49:01 51°14.239 2°55.321 14.7771 1.991214 13.902544 -2.458615
2012-03-27 06:49:06 51°14.251 2°55.308 14.6866 1.990389 13.895991 -2.458615
2012-03-27 06:49:11 51°14.262 2°55.296 14.6592 1.990802 13.898866 -2.458615
2012-03-27 06:49:16 51°14.274 2°55.284 14.6526 1.990802 13.898866 -2.458615
2012-03-27 06:49:21 51°14.286 2°55.272 14.6477 1.991421 13.903848 -2.458615
2012-03-27 06:49:26 51°14.297 2°55.26 14.5693 1.990905 13.899919 -2.458615
2012-03-27 06:49:31 51°14.309 2°55.248 14.6882 1.99204 13.90883 -2.458615
2012-03-27 06:49:36 51°14.321 2°55.236 14.6342 1.991524 13.905169 -2.458615
2012-03-27 06:49:42 51°14.336 2°55.221 14.6381 1.990698 13.898616 -2.458615
2012-03-27 06:49:46 51°14.345 2°55.212 14.5114 1.990698 13.898616 -2.458615
2012-03-27 06:49:51 51°14.358 2°55.2 14.6692 1.99235 13.911187 -2.458615
2012-03-27 06:49:56 51°14.37 2°55.188 14.6475 1.992969 13.916706 -2.458615
2012-03-27 06:50:02 51°14.385 2°55.175 14.6505 1.992866 13.916189 -2.458615
2012-03-27 06:50:06 51°14.395 2°55.166 14.6669 1.993175 13.918546 -2.458615
2012-03-27 06:50:11 51°14.408 2°55.154 14.6974 1.993072 13.918029 -2.458615
2012-03-27 06:50:16 51°14.421 2°55.143 14.6457 1.993072 13.918029 -2.458615
2012-03-27 06:50:22 51°14.437 2°55.129 14.6337 1.992763 13.915403 -2.458615
2012-03-27 06:50:26 51°14.447 2°55.12 14.5974 1.992453 13.913046 -2.458615
2012-03-27 06:50:31 51°14.46 2°55.108 14.6783 1.993175 13.918546 -2.458615
2012-03-27 06:50:36 51°14.473 2°55.096 14.7865 1.993382 13.920118 -2.458615
2012-03-27 06:50:41 51°14.486 2°55.083 14.7548 1.993279 13.9196 -2.458615
2012-03-27 06:50:46 51°14.499 2°55.071 14.7232 1.993279 13.9196 -2.458615
2012-03-27 06:50:51 51°14.512 2°55.059 14.7639 1.992866 13.91592 -2.458615
2012-03-27 06:50:55 51°14.522 2°55.048 14.8089 1.993279 13.919332 -2.458615
2012-03-27 06:51:00 51°14.535 2°55.034 14.905 1.993691 13.922475 -2.458615
2012-03-27 06:51:05 51°14.547 2°55.019 14.9659 1.988737 13.884493 -2.458615
2012-03-27 06:51:10 51°14.557 2°55.001 14.7221 1.987602 13.874247 -2.458615
2012-03-27 06:51:15 51°14.568 2°54.983 14.6429 1.987602 13.874247 -2.458615
2012-03-27 06:51:19 51°14.576 2°54.968 14.7005 1.990802 13.898598 -2.458615
2012-03-27 06:51:24 51°14.588 2°54.949 14.7015 1.991524 13.904365 -2.458615
2012-03-27 06:51:29 51°14.599 2°54.931 14.6575 1.990698 13.897812 -2.458615
2012-03-27 06:51:34 51°14.61 2°54.913 14.6602 1.989976 13.892045 -2.458615
2012-03-27 06:51:39 51°14.622 2°54.895 14.596 1.989976 13.892313 -2.458615
2012-03-27 06:51:43 51°14.632 2°54.881 14.6819 1.989976 13.892313 -2.458615
2012-03-27 06:51:48 51°14.644 2°54.863 14.645 1.989666 13.890224 -2.458615
2012-03-27 06:51:53 51°14.657 2°54.845 14.6493 1.988841 13.884208 -2.458615
2012-03-27 06:51:58 51°14.67 2°54.827 14.5222 1.988325 13.880548 -2.458615
2012-03-27 06:52:03 51°14.682 2°54.809 14.5413 1.989976 13.893385 -2.458615
2012-03-27 06:52:08 51°14.695 2°54.791 14.6177 1.990492 13.898117 -2.458615
2012-03-27 06:52:13 51°14.708 2°54.774 14.5071 1.990492 13.898117 -2.458615
2012-03-27 06:52:18 51°14.721 2°54.756 14.5585 1.990389 13.897867 -2.458615
2012-03-27 06:52:23 51°14.735 2°54.739 14.632 1.991627 13.907296 -2.458615
2012-03-27 06:52:28 51°14.749 2°54.722 14.5645 1.991111 13.903367 -2.458615
2012-03-27 06:52:33 51°14.763 2°54.706 14.637 1.990286 13.896814 -2.458615
2012-03-27 06:52:38 51°14.776 2°54.69 14.6204 1.991524 13.906242 -2.458615
2012-03-27 06:52:43 51°14.79 2°54.674 14.654 1.991524 13.906242 -2.458615
2012-03-27 06:52:47 51°14.801 2°54.661 14.6188 1.991524 13.90651 -2.458615
2012-03-27 06:52:53 51°14.818 2°54.642 14.4531 1.990389 13.897331 -2.458615
2012-03-27 06:52:58 51°14.832 2°54.627 14.5076 1.992453 13.913314 -2.458615
2012-03-27 06:53:03 51°14.847 2°54.613 14.5696 1.996478 13.94477 -2.458615
2012-03-27 06:53:08 51°14.862 2°54.599 14.6412 1.998026 13.957368 -2.458615
2012-03-27 06:53:13 51°14.877 2°54.586 14.5966 1.998026 13.957368 -2.458615
2012-03-27 06:53:18 51°14.892 2°54.573 14.6489 1.995859 13.940861 -2.458615
2012-03-27 06:53:23 51°14.907 2°54.56 14.6578 1.995962 13.941916 -2.458615
2012-03-27 06:53:28 51°14.922 2°54.547 14.6667 1.995859 13.94113 -2.458615
2012-03-27 06:53:33 51°14.938 2°54.535 14.6602 1.995549 13.938771 -2.458615
2012-03-27 06:53:38 51°14.952 2°54.521 14.6986 1.995653 13.939558 -2.458615
2012-03-27 06:53:43 51°14.967 2°54.508 14.7085 1.995653 13.939558 -2.458615
2012-03-27 06:53:48 51°14.982 2°54.494 14.726 1.995446 13.937717 -2.458615
2012-03-27 06:53:53 51°14.997 2°54.479 14.7348 1.994827 13.932732 -2.458615
2012-03-27 06:53:58 51°15.011 2°54.465 14.6258 1.992453 13.913851 -2.458615
2012-03-27 06:54:03 51°15.025 2°54.449 14.5391 1.99235 13.911992 -2.458615
2012-03-27 06:54:08 51°15.039 2°54.434 14.5752 1.994724 13.930602 -2.458615
2012-03-27 06:54:13 51°15.054 2°54.419 14.5718 1.994724 13.930602 -2.458615
2012-03-27 06:54:18 51°15.069 2°54.407 14.5987 1.994104 13.926156 -2.458615
2012-03-27 06:54:23 51°15.084 2°54.393 14.5075 1.994001 13.925101 -2.458615
2012-03-27 06:54:28 51°15.099 2°54.38 14.5662 1.99493 13.932712 -2.458615
2012-03-27 06:54:33 51°15.114 2°54.368 14.5255 1.99493 13.932712 -2.458615
2012-03-27 06:54:38 51°15.13 2°54.358 14.5828 1.994827 13.931926 -2.458615
2012-03-27 06:54:43 51°15.146 2°54.348 14.5634 1.994827 13.931926 -2.458615
2012-03-27 06:54:47 51°15.159 2°54.341 14.6537 1.995446 13.937179 -2.458615
2012-03-27 06:54:53 51°15.177 2°54.331 14.6684 1.996478 13.945846 -2.458615
2012-03-27 06:54:58 51°15.194 2°54.324 14.6874 1.996169 13.944026 -2.458615
2012-03-27 06:55:03 51°15.21 2°54.316 14.6495 1.995653 13.940095 -2.458615
2012-03-27 06:55:08 51°15.226 2°54.309 14.6859 1.995343 13.938006 -2.458615
2012-03-27 06:55:13 51°15.242 2°54.302 14.6794 1.995343 13.938006 -2.458615
2012-03-27 06:55:18 51°15.258 2°54.295 14.6743 1.99462 13.932504 -2.458615
2012-03-27 06:55:23 51°15.275 2°54.289 14.6391 1.994311 13.929608 -2.458615
2012-03-27 06:55:28 51°15.291 2°54.282 14.655 1.995136 13.935627 -2.458615
2012-03-27 06:55:33 51°15.307 2°54.276 14.6847 1.994104 13.927499 -2.458615
2012-03-27 06:55:38 51°15.323 2°54.271 14.6922 1.995136 13.935359 -2.458615
2012-03-27 06:55:43 51°15.34 2°54.266 14.6831 1.995136 13.935359 -2.458615
2012-03-27 06:55:48 51°15.356 2°54.261 14.652 1.99462 13.931697 -2.458615
2012-03-27 06:55:53 51°15.373 2°54.258 14.6785 1.994517 13.930643 -2.458615
2012-03-27 06:55:58 51°15.389 2°54.254 14.6452 1.994311 13.929339 -2.458615
2012-03-27 06:56:03 51°15.405 2°54.251 14.6754 1.995033 13.935379 -2.458615
2012-03-27 06:56:08 51°15.421 2°54.248 14.6971 1.995033 13.935648 -2.458615
2012-03-27 06:56:13 51°15.438 2°54.247 14.6746 1.995033 13.935648 -2.458615
2012-03-27 06:56:18 51°15.455 2°54.245 14.692 1.994827 13.934344 -2.458615
2012-03-27 06:56:23 51°15.471 2°54.243 14.6866 1.99462 13.933041 -2.458615
2012-03-27 06:56:28 51°15.488 2°54.242 14.686 1.995033 13.935917 -2.458615
2012-03-27 06:56:33 51°15.504 2°54.24 14.7134 1.994827 13.934344 -2.458615
2012-03-27 06:56:38 51°15.52 2°54.239 14.7244 1.995446 13.939061 -2.458615
2012-03-27 06:56:43 51°15.537 2°54.237 14.8019 1.995446 13.939061 -2.458615
2012-03-27 06:56:48 51°15.553 2°54.235 14.8251 1.993795 13.926753 -2.458615
2012-03-27 06:56:53 51°15.57 2°54.232 14.7773 1.991215 13.906299 -2.458615
2012-03-27 06:56:58 51°15.586 2°54.229 14.7843 1.990595 13.901047 -2.458615
2012-03-27 06:57:03 51°15.603 2°54.225 14.7857 1.991111 13.904976 -2.458615
2012-03-27 06:57:07 51°15.616 2°54.221 14.7334 1.990182 13.898172 -2.458615
2012-03-27 06:57:13 51°15.636 2°54.214 14.6718 1.990182 13.898172 -2.458615
2012-03-27 06:57:18 51°15.652 2°54.209 14.7327 1.991937 13.9118 -2.458615
2012-03-27 06:57:23 51°15.668 2°54.203 14.7497 1.991008 13.904995 -2.458615
2012-03-27 06:57:28 51°15.684 2°54.197 14.6604 1.991318 13.907889 -2.458615
2012-03-27 06:57:33 51°15.7 2°54.19 14.6705 1.991421 13.908944 -2.458615
2012-03-27 06:57:38 51°15.717 2°54.184 14.6429 1.99204 13.913928 -2.458615
2012-03-27 06:57:43 51°15.733 2°54.179 14.651 1.99204 13.913928 -2.458615
2012-03-27 06:57:48 51°15.75 2°54.174 14.6839 1.99204 13.914465 -2.458615
2012-03-27 06:57:53 51°15.766 2°54.169 14.6471 1.99204 13.914733 -2.458615
2012-03-27 06:57:58 51°15.783 2°54.165 14.6819 1.991937 13.913947 -2.458615
2012-03-27 06:58:03 51°15.799 2°54.161 14.6822 1.992866 13.921827 -2.458615
2012-03-27 06:58:08 51°15.816 2°54.157 14.7071 1.992763 13.921578 -2.458615
2012-03-27 06:58:13 51°15.832 2°54.154 14.6776 1.992763 13.921578 -2.458615
2012-03-27 06:58:18 51°15.849 2°54.152 14.695 1.992866 13.922633 -2.458615
2012-03-27 06:58:23 51°15.865 2°54.149 14.6761 1.992556 13.920543 -2.458615
2012-03-27 06:58:28 51°15.882 2°54.147 14.6954 1.992556 13.920543 -2.458615
2012-03-27 06:58:33 51°15.898 2°54.145 14.6817 1.992556 13.920812 -2.458615
2012-03-27 06:58:38 51°15.914 2°54.144 14.6183 1.992866 13.92317 -2.458615
2012-03-27 06:58:43 51°15.931 2°54.143 14.5285 1.992866 13.92317 -2.458615
2012-03-27 06:58:47 51°15.944 2°54.144 14.4717 1.992866 13.92317 -2.458615
2012-03-27 06:58:53 51°15.964 2°54.147 14.5424 1.994621 13.937074 -2.458615
2012-03-27 06:58:58 51°15.98 2°54.152 14.6382 1.996891 13.954912 -2.458615
2012-03-27 06:59:03 51°15.995 2°54.158 14.7503 1.996582 13.95363 -2.458615
2012-03-27 06:59:07 51°16.007 2°54.162 14.7045 1.99493 13.941047 -2.458615
2012-03-27 06:59:13 51°16.025 2°54.17 14.7477 1.99493 13.941047 -2.458615
2012-03-27 06:59:18 51°16.04 2°54.176 14.7605 1.995653 13.946821 -2.458615
2012-03-27 06:59:23 51°16.054 2°54.182 14.8053 1.995962 13.94945 -2.458615
2012-03-27 06:59:28 51°16.067 2°54.187 14.8489 1.996375 13.953404 -2.458615
2012-03-27 06:59:33 51°16.079 2°54.193 14.8585 1.996066 13.951583 -2.458615
2012-03-27 06:59:38 51°16.09 2°54.198 14.8856 1.995653 13.948437 -2.458615
2012-03-27 06:59:43 51°16.101 2°54.202 14.8841 1.995653 13.948437 -2.458615
2012-03-27 06:59:48 51°16.111 2°54.206 14.9345 1.995549 13.94792 -2.458615
2012-03-27 06:59:53 51°16.122 2°54.21 14.9341 1.994827 13.942414 -2.458615
2012-03-27 06:59:58 51°16.132 2°54.214 14.9306 1.994208 13.937426 -2.458615
2012-03-27 07:00:03 51°16.141 2°54.217 14.9341 1.993588 13.932438 -2.458615
2012-03-27 07:00:08 51°16.15 2°54.219 14.9099 1.993382 13.930865 -2.458615
2012-03-27 07:00:13 51°16.159 2°54.222 14.935 1.993382 13.930865 -2.458615
2012-03-27 07:00:18 51°16.168 2°54.224 14.9008 1.993588 13.932707 -2.458615
2012-03-27 07:00:23 51°16.177 2°54.227 14.9093 1.993279 13.930348 -2.458615
2012-03-27 07:00:28 51°16.185 2°54.228 14.8891 1.993176 13.92983 -2.458615
2012-03-27 07:00:33 51°16.193 2°54.231 14.8752 1.993898 13.936142 -2.458615
2012-03-27 07:00:38 51°16.201 2°54.232 14.8865 1.993176 13.931175 -2.458615
2012-03-27 07:00:43 51°16.208 2°54.234 14.9056 1.993176 13.931175 -2.458615
2012-03-27 07:00:48 51°16.215 2°54.235 14.9583 1.993692 13.935376 -2.458615
2012-03-27 07:00:53 51°16.222 2°54.237 14.9517 1.994724 13.94405 -2.458615
2012-03-27 07:00:58 51°16.229 2°54.239 14.936 1.993589 13.935397 -2.458615
2012-03-27 07:01:03 51°16.235 2°54.241 14.9288 1.993898 13.938026 -2.458615
2012-03-27 07:01:07 51°16.24 2°54.242 14.9262 1.994001 13.939082 -2.458615
2012-03-27 07:01:13 51°16.248 2°54.243 14.9292 1.994001 13.939082 -2.458615
2012-03-27 07:01:18 51°16.253 2°54.245 14.9169 1.993692 13.936722 -2.458615
2012-03-27 07:01:23 51°16.259 2°54.247 14.9212 1.994105 13.940407 -2.458615
2012-03-27 07:01:27 51°16.264 2°54.248 14.9221 1.993898 13.939103 -2.458615
2012-03-27 07:01:33 51°16.27 2°54.251 14.925 1.993279 13.934652 -2.458615
2012-03-27 07:01:38 51°16.275 2°54.253 14.8545 1.992453 13.928089 -2.458615
2012-03-27 07:01:43 51°16.281 2°54.256 14.791 1.992453 13.928089 -2.458615
2012-03-27 07:01:48 51°16.285 2°54.259 14.7455 1.99204 13.924674 -2.458615
2012-03-27 07:01:53 51°16.29 2°54.262 14.8182 1.992453 13.928089 -2.458615
2012-03-27 07:01:58 51°16.293 2°54.266 14.8126 1.992866 13.931774 -2.458615
2012-03-27 07:02:03 51°16.297 2°54.27 14.8741 1.995343 13.951733 -2.458615
2012-03-27 07:02:08 51°16.3 2°54.274 14.8954 1.994208 13.943617 -2.458615
2012-03-27 07:02:13 51°16.303 2°54.278 14.9107 1.994208 13.943617 -2.458615
2012-03-27 07:02:18 51°16.305 2°54.282 14.9014 1.994105 13.943369 -2.458615
2012-03-27 07:02:23 51°16.307 2°54.287 14.9282 1.993898 13.942064 -2.458615
2012-03-27 07:02:28 51°16.308 2°54.291 14.9311 1.99266 13.932622 -2.458615
2012-03-27 07:02:33 51°16.31 2°54.295 14.9054 1.993382 13.938668 -2.458615
2012-03-27 07:02:38 51°16.311 2°54.298 14.9334 1.994414 13.947346 -2.458615
2012-03-27 07:02:43 51°16.311 2°54.3 14.935 1.994414 13.947346 -2.458615
2012-03-27 07:02:48 51°16.312 2°54.302 14.9422 1.992144 13.930303 -2.458615
2012-03-27 07:02:53 51°16.313 2°54.302 14.9594 1.992144 13.930303 -2.458615
2012-03-27 07:02:58 51°16.313 2°54.302 14.9916 1.992453 13.932933 -2.458615
2012-03-27 07:03:03 51°16.313 2°54.302 14.8665 1.991731 13.927155 -2.458615
2012-03-27 07:03:08 51°16.313 2°54.302 14.925 1.992453 13.932663 -2.458615
2012-03-27 07:03:13 51°16.313 2°54.301 14.9426 1.992453 13.932663 -2.458615
2012-03-27 07:03:18 51°16.312 2°54.3 14.9557 1.993176 13.938172 -2.458615
2012-03-27 07:03:23 51°16.312 2°54.299 14.9238 1.992453 13.932394 -2.458615
2012-03-27 07:03:27 51°16.312 2°54.299 14.9749 1.992763 13.934755 -2.458615
2012-03-27 07:03:33 51°16.311 2°54.297 14.9192 1.99266 13.934506 -2.458615
2012-03-27 07:03:38 51°16.311 2°54.297 14.9403 1.992763 13.935832 -2.458615
2012-03-27 07:03:43 51°16.31 2°54.296 14.9313 1.992763 13.935832 -2.458615
2012-03-27 07:03:48 51°16.31 2°54.295 14.9407 1.991937 13.929536 -2.458615
2012-03-27 07:03:53 51°16.31 2°54.294 14.9554 1.991834 13.929019 -2.458615
2012-03-27 07:03:58 51°16.309 2°54.293 14.9313 1.991112 13.923779 -2.458615
2012-03-27 07:04:03 51°16.308 2°54.292 14.9464 1.991834 13.930095 -2.458615
2012-03-27 07:04:08 51°16.308 2°54.291 14.937 1.991421 13.926947 -2.458615
2012-03-27 07:04:13 51°16.307 2°54.289 14.9479 1.991421 13.926947 -2.458615
2012-03-27 07:04:18 51°16.307 2°54.288 14.9452 1.991731 13.929308 -2.458615
2012-03-27 07:04:23 51°16.306 2°54.287 14.9247 1.991008 13.923799 -2.458615
2012-03-27 07:04:28 51°16.306 2°54.286 14.9377 1.991937 13.931151 -2.458615
2012-03-27 07:04:33 51°16.305 2°54.285 14.9518 1.989873 13.915412 -2.458615
2012-03-27 07:04:38 51°16.304 2°54.284 14.8802 1.991008 13.923799 -2.458615
2012-03-27 07:04:43 51°16.304 2°54.283 14.9268 1.991008 13.923799 -2.458615
2012-03-27 07:04:48 51°16.303 2°54.281 14.9149 1.990802 13.922495 -2.458615
2012-03-27 07:04:53 51°16.303 2°54.28 14.9243 1.991525 13.928272 -2.458615
2012-03-27 07:04:58 51°16.302 2°54.279 14.9186 1.990802 13.923033 -2.458615
2012-03-27 07:05:03 51°16.301 2°54.277 14.8586 1.991421 13.928024 -2.458615
2012-03-27 07:05:08 51°16.301 2°54.276 14.8879 1.990699 13.923053 -2.458615
2012-03-27 07:05:13 51°16.3 2°54.274 14.9189 1.990699 13.923053 -2.458615
2012-03-27 07:05:18 51°16.299 2°54.273 14.9298 1.990596 13.922266 -2.458615
2012-03-27 07:05:23 51°16.299 2°54.272 14.9307 1.990492 13.921748 -2.458615
2012-03-27 07:05:28 51°16.298 2°54.27 14.894 1.989667 13.915452 -2.458615
2012-03-27 07:05:33 51°16.297 2°54.269 14.9062 1.990699 13.92386 -2.458615
2012-03-27 07:05:38 51°16.296 2°54.267 14.9379 1.991525 13.930695 -2.458615
2012-03-27 07:05:43 51°16.295 2°54.265 14.8939 1.991525 13.930695 -2.458615
2012-03-27 07:05:47 51°16.295 2°54.264 14.9083 1.990802 13.925185 -2.458615
2012-03-27 07:05:53 51°16.294 2°54.262 14.9152 1.991215 13.928334 -2.458615
2012-03-27 07:05:58 51°16.293 2°54.261 14.9152 1.99008 13.919676 -2.458615
2012-03-27 07:06:03 51°16.293 2°54.259 14.3271 1.986674 13.893168 -2.458615
2012-03-27 07:06:08 51°16.292 2°54.257 14.6934 1.986364 13.890002 -2.458615
2012-03-27 07:06:13 51°16.291 2°54.255 14.7082 1.986364 13.890002 -2.458615
2012-03-27 07:06:18 51°16.29 2°54.254 14.6233 1.991112 13.927008 -2.458615
2012-03-27 07:06:23 51°16.29 2°54.252 14.5892 1.992557 13.939105 -2.458615
2012-03-27 07:06:28 51°16.289 2°54.25 14.5824 1.99235 13.93807 -2.458615
2012-03-27 07:06:33 51°16.288 2°54.248 14.5927 1.991731 13.933347 -2.458615
2012-03-27 07:06:38 51°16.287 2°54.247 14.6234 1.988015 13.904204 -2.458615
2012-03-27 07:06:43 51°16.287 2°54.245 14.6301 1.988015 13.904204 -2.458615
2012-03-27 07:06:48 51°16.286 2°54.243 14.6328 1.989254 13.913379 -2.458615
2012-03-27 07:06:53 51°16.285 2°54.242 14.6409 1.990286 13.921788 -2.458615
2012-03-27 07:06:58 51°16.284 2°54.24 14.646 1.990802 13.926262 -2.458615
2012-03-27 07:07:03 51°16.284 2°54.238 14.6522 1.989151 13.913937 -2.458615
2012-03-27 07:07:08 51°16.283 2°54.236 14.6532 1.98946 13.916298 -2.458615
2012-03-27 07:07:13 51°16.282 2°54.234 14.6619 1.98946 13.916298 -2.458615
2012-03-27 07:07:18 51°16.281 2°54.232 14.6457 1.989048 13.913419 -2.458615
2012-03-27 07:07:23 51°16.28 2°54.23 14.6477 1.991215 13.930218 -2.458615
2012-03-27 07:07:28 51°16.28 2°54.229 14.6616 1.990699 13.926282 -2.458615
2012-03-27 07:07:33 51°16.279 2°54.227 14.6674 1.989048 13.912881 -2.458615
2012-03-27 07:07:38 51°16.278 2°54.225 14.6732 1.989564 13.916816 -2.458615
2012-03-27 07:07:43 51°16.277 2°54.223 14.6685 1.989564 13.916816 -2.458615
2012-03-27 07:07:48 51°16.276 2°54.221 14.6738 1.98946 13.916567 -2.458615
2012-03-27 07:07:53 51°16.276 2°54.219 14.6696 1.988738 13.911326 -2.458615
2012-03-27 07:07:58 51°16.275 2°54.218 14.6688 1.988944 13.913438 -2.458615
2012-03-27 07:08:03 51°16.274 2°54.216 14.6713 -999 -999 -2.458615
2012-03-27 07:08:08 51°16.273 2°54.213 14.675 -999 -999 -2.018535
2012-03-27 07:08:13 51°16.272 2°54.212 14.6786 1.988325 13.908984 -2.458615
2012-03-27 07:08:18 51°16.272 2°54.21 14.6785 1.989357 13.917394 -2.458615
2012-03-27 07:08:23 51°16.271 2°54.208 14.6801 1.988428 13.910309 -2.458615
2012-03-27 07:08:28 51°16.27 2°54.206 14.6805 1.988841 13.913458 -2.458615
2012-03-27 07:08:33 51°16.269 2°54.204 14.6842 1.988738 13.912671 -2.458615
2012-03-27 07:08:38 51°16.268 2°54.202 14.6849 1.989048 13.915033 -2.458615
2012-03-27 07:08:43 51°16.267 2°54.2 14.6819 1.989048 13.915033 -2.458615
2012-03-27 07:08:48 51°16.267 2°54.198 14.686 1.988841 13.913458 -2.458615
2012-03-27 07:08:53 51°16.266 2°54.196 14.6859 1.988944 13.914514 -2.458615
2012-03-27 07:08:58 51°16.265 2°54.194 14.6868 1.988119 13.908217 -2.458615
2012-03-27 07:09:03 51°16.264 2°54.192 14.6894 1.989564 13.919776 -2.458615
2012-03-27 07:09:08 51°16.264 2°54.19 14.689 1.988841 13.914265 -2.458615
2012-03-27 07:09:13 51°16.263 2°54.188 14.6832 1.988841 13.914265 -2.458615
2012-03-27 07:09:18 51°16.262 2°54.186 14.6872 1.987912 13.906911 -2.458615
2012-03-27 07:09:23 51°16.261 2°54.184 14.6895 1.988635 13.912422 -2.458615
2012-03-27 07:09:28 51°16.261 2°54.182 14.689 1.988841 13.914534 -2.458615
2012-03-27 07:09:33 51°16.26 2°54.18 14.6919 1.988222 13.909542 -2.458615
2012-03-27 07:09:38 51°16.259 2°54.178 14.6956 1.988944 13.91559 -2.458615
2012-03-27 07:09:43 51°16.258 2°54.176 14.6935 1.988944 13.91559 -2.458615
2012-03-27 07:09:48 51°16.258 2°54.174 14.702 1.988325 13.910867 -2.458615
2012-03-27 07:09:53 51°16.257 2°54.173 14.7006 1.98946 13.919796 -2.458615
2012-03-27 07:09:58 51°16.256 2°54.17 14.7023 1.988222 13.910349 -2.458615
2012-03-27 07:10:03 51°16.255 2°54.168 14.7022 1.988119 13.909561 -2.458615
2012-03-27 07:10:07 51°16.255 2°54.167 14.6986 1.987706 13.906144 -2.458615
2012-03-27 07:10:13 51°16.254 2°54.164 14.7006 1.987706 13.906144 -2.458615
2012-03-27 07:10:18 51°16.253 2°54.162 14.7068 1.988119 13.909292 -2.458615
2012-03-27 07:10:23 51°16.252 2°54.16 14.7094 1.988016 13.908774 -2.458615
2012-03-27 07:10:28 51°16.252 2°54.158 14.7127 1.988325 13.911136 -2.458615
2012-03-27 07:10:33 51°16.251 2°54.156 14.717 1.989873 13.923753 -2.458615
2012-03-27 07:10:38 51°16.25 2°54.155 14.7209 1.989564 13.92166 -2.458615
2012-03-27 07:10:43 51°16.249 2°54.153 14.7224 1.989564 13.92166 -2.458615
2012-03-27 07:10:48 51°16.249 2°54.151 14.7098 1.989151 13.918511 -2.458615
2012-03-27 07:10:53 51°16.248 2°54.149 14.7133 1.989254 13.919029 -2.458615
2012-03-27 07:10:58 51°16.247 2°54.147 14.7071 1.987396 13.904588 -2.458615
2012-03-27 07:11:03 51°16.246 2°54.145 14.708 1.988119 13.910368 -2.458615
2012-03-27 07:11:08 51°16.245 2°54.143 14.7209 1.989254 13.919567 -2.458615
2012-03-27 07:11:13 51°16.245 2°54.141 14.72 1.989254 13.919567 -2.458615
2012-03-27 07:11:18 51°16.244 2°54.138 14.71 1.988016 13.910388 -2.458615
2012-03-27 07:11:23 51°16.243 2°54.137 14.714 1.986261 13.896466 -2.458615
2012-03-27 07:11:28 51°16.242 2°54.135 14.7066 1.987809 13.908544 -2.458615
2012-03-27 07:11:33 51°16.241 2°54.132 14.71 1.987087 13.903302 -2.458615
2012-03-27 07:11:38 51°16.241 2°54.13 14.7174 1.988944 13.918012 -2.458615
2012-03-27 07:11:43 51°16.24 2°54.129 14.7306 1.988944 13.918012 -2.458615
2012-03-27 07:11:48 51°16.239 2°54.126 14.7293 1.988635 13.916188 -2.458615
2012-03-27 07:11:53 51°16.238 2°54.124 14.7348 1.987912 13.910139 -2.458615
2012-03-27 07:11:58 51°16.238 2°54.122 14.734 1.988119 13.911982 -2.458615
2012-03-27 07:12:03 51°16.237 2°54.12 14.7234 1.986467 13.899116 -2.458615
2012-03-27 07:12:08 51°16.236 2°54.118 14.7257 1.987293 13.905146 -2.458615
2012-03-27 07:12:13 51°16.235 2°54.116 14.7267 1.987293 13.905146 -2.458615
2012-03-27 07:12:18 51°16.235 2°54.114 14.7262 1.987809 13.909351 -2.458615
2012-03-27 07:12:23 51°16.234 2°54.112 14.7309 1.987293 13.905683 -2.458615
2012-03-27 07:12:28 51°16.233 2°54.11 14.7285 1.988119 13.911982 -2.458615
2012-03-27 07:12:33 51°16.232 2°54.108 14.7445 1.987912 13.910677 -2.458615
2012-03-27 07:12:38 51°16.232 2°54.106 14.7421 1.988325 13.914633 -2.458615
2012-03-27 07:12:43 51°16.231 2°54.104 14.7425 1.988325 13.914633 -2.458615
2012-03-27 07:12:48 51°16.23 2°54.102 14.7462 1.988016 13.912271 -2.458615
2012-03-27 07:12:53 51°16.229 2°54.1 14.7379 1.988428 13.915421 -2.458615
2012-03-27 07:12:58 51°16.228 2°54.098 14.7269 1.987087 13.904646 -2.458615
2012-03-27 07:13:03 51°16.228 2°54.096 14.7349 1.986984 13.90359 -2.458615
2012-03-27 07:13:08 51°16.227 2°54.094 14.7313 1.98688 13.903072 -2.458615
2012-03-27 07:13:13 51°16.226 2°54.092 14.7455 1.98688 13.903072 -2.458615
2012-03-27 07:13:18 51°16.226 2°54.09 14.7318 1.988532 13.916208 -2.458615
2012-03-27 07:13:23 51°16.225 2°54.088 14.74 1.986777 13.902284 -2.458615
2012-03-27 07:13:28 51°16.224 2°54.085 14.7402 1.9875 13.908065 -2.458615
2012-03-27 07:13:33 51°16.223 2°54.084 14.7507 1.988222 13.913846 -2.458615
2012-03-27 07:13:38 51°16.223 2°54.082 14.7393 1.986571 13.901785 -2.458615
2012-03-27 07:13:43 51°16.222 2°54.08 14.7364 1.986571 13.901785 -2.458615
2012-03-27 07:13:48 51°16.221 2°54.078 14.7439 1.985539 13.893643 -2.458615
2012-03-27 07:13:53 51°16.22 2°54.075 14.7426 1.986261 13.899154 -2.458615
2012-03-27 07:13:58 51°16.219 2°54.073 14.7454 1.986674 13.902573 -2.458615
2012-03-27 07:14:03 51°16.219 2°54.071 14.7473 1.986777 13.903629 -2.458615
2012-03-27 07:14:08 51°16.218 2°54.069 14.7452 1.985745 13.895217 -2.458615
2012-03-27 07:14:13 51°16.217 2°54.067 14.7482 1.985745 13.895217 -2.458615
2012-03-27 07:14:18 51°16.216 2°54.065 14.7477 1.986158 13.898904 -2.458615
2012-03-27 07:14:23 51°16.216 2°54.063 14.7493 1.986984 13.905473 -2.458615
2012-03-27 07:14:28 51°16.215 2°54.061 14.7546 1.988738 13.919129 -2.458615
2012-03-27 07:14:33 51°16.214 2°54.06 14.7578 1.987912 13.913098 -2.458615
2012-03-27 07:14:38 51°16.213 2°54.057 14.7562 1.98688 13.905223 -2.458615
2012-03-27 07:14:43 51°16.212 2°54.055 14.7621 1.98688 13.905223 -2.458615
2012-03-27 07:14:48 51°16.212 2°54.053 14.7642 1.987706 13.911523 -2.458615
2012-03-27 07:14:53 51°16.211 2°54.051 14.7674 1.988635 13.91915 -2.458615
2012-03-27 07:14:58 51°16.21 2°54.049 14.7658 1.988429 13.917844 -2.458615
2012-03-27 07:15:03 51°16.209 2°54.047 14.7665 1.989564 13.926508 -2.458615
2012-03-27 07:15:08 51°16.209 2°54.045 14.7766 1.989667 13.927565 -2.458615
2012-03-27 07:15:13 51°16.208 2°54.043 14.7677 1.989667 13.927565 -2.458615
2012-03-27 07:15:18 51°16.207 2°54.041 14.7751 1.986984 13.906818 -2.458615
2012-03-27 07:15:23 51°16.206 2°54.039 14.7749 1.988222 13.916538 -2.458615
2012-03-27 07:15:27 51°16.206 2°54.037 14.7748 1.987706 13.9126 -2.458615
2012-03-27 07:15:33 51°16.205 2°54.035 14.7666 1.988222 13.917076 -2.458615
2012-03-27 07:15:38 51°16.204 2°54.033 14.7769 1.988738 13.921014 -2.458615
2012-03-27 07:15:43 51°16.203 2°54.03 14.7763 1.988738 13.921014 -2.458615
2012-03-27 07:15:48 51°16.202 2°54.028 14.7769 1.987809 13.914195 -2.458615
2012-03-27 07:15:53 51°16.201 2°54.026 14.7794 1.988429 13.918921 -2.458615
2012-03-27 07:15:58 51°16.201 2°54.024 14.7855 1.987912 13.914982 -2.458615
2012-03-27 07:16:03 51°16.2 2°54.022 14.7797 1.988325 13.918133 -2.458615
2012-03-27 07:16:08 51°16.199 2°54.02 14.7899 1.988429 13.918651 -2.458615
2012-03-27 07:16:13 51°16.198 2°54.018 14.7824 1.988429 13.918651 -2.458615
2012-03-27 07:16:18 51°16.198 2°54.016 14.7956 1.9875 13.911294 -2.458615
2012-03-27 07:16:23 51°16.197 2°54.014 14.7974 1.988738 13.921284 -2.458615
2012-03-27 07:16:28 51°16.196 2°54.012 14.7957 1.988635 13.920765 -2.458615
2012-03-27 07:16:33 51°16.195 2°54.009 14.7837 1.987087 13.908681 -2.458615
2012-03-27 07:16:38 51°16.194 2°54.007 14.8021 1.989254 13.925492 -2.458615
2012-03-27 07:16:43 51°16.193 2°54.005 14.7899 1.989254 13.925492 -2.458615
2012-03-27 07:16:48 51°16.192 2°54.003 14.8029 1.987396 13.911313 -2.458615
2012-03-27 07:16:53 51°16.191 2°54.002 14.8152 1.989048 13.924724 -2.458615
2012-03-27 07:16:58 51°16.19 2°54 14.8315 1.989873 13.931835 -2.458615
2012-03-27 07:17:03 51°16.188 2°53.999 14.847 1.989667 13.930529 -2.458615
2012-03-27 07:17:08 51°16.185 2°53.999 14.8358 1.987603 13.914235 -2.458615
2012-03-27 07:17:13 51°16.183 2°53.999 14.8411 1.987603 13.914235 -2.458615
2012-03-27 07:17:18 51°16.181 2°54 14.8342 1.987913 13.916329 -2.458615
2012-03-27 07:17:23 51°16.178 2°54.001 14.8402 1.98688 13.908452 -2.458615
2012-03-27 07:17:28 51°16.176 2°54.003 14.8203 1.986777 13.907395 -2.458615
2012-03-27 07:17:33 51°16.174 2°54.006 14.8179 1.985332 13.895831 -2.458615
2012-03-27 07:17:38 51°16.172 2°54.009 14.8091 1.985229 13.895043 -2.458615
2012-03-27 07:17:43 51°16.17 2°54.012 14.8239 1.985229 13.895043 -2.458615
2012-03-27 07:17:47 51°16.169 2°54.015 14.8158 1.985952 13.900825 -2.458615
2012-03-27 07:17:53 51°16.168 2°54.021 14.8181 1.985539 13.897675 -2.458615
2012-03-27 07:17:58 51°16.168 2°54.025 14.8186 1.986055 13.901882 -2.458615
2012-03-27 07:18:03 51°16.167 2°54.03 14.8237 1.986055 13.902151 -2.458615
2012-03-27 07:18:08 51°16.168 2°54.035 14.8271 1.985229 13.89585 -2.458615
2012-03-27 07:18:13 51°16.168 2°54.039 14.8528 1.985229 13.89585 -2.458615
2012-03-27 07:18:18 51°16.169 2°54.044 14.8571 1.986674 13.907415 -2.458615
2012-03-27 07:18:23 51°16.172 2°54.051 14.8525 1.985332 13.897175 -2.458615
2012-03-27 07:18:28 51°16.175 2°54.057 14.8519 1.983475 13.882193 -2.458615
2012-03-27 07:18:33 51°16.179 2°54.065 14.8419 1.981101 13.863545 -2.458615
2012-03-27 07:18:38 51°16.184 2°54.072 14.8074 1.983371 13.880599 -2.458615
2012-03-27 07:18:43 51°16.19 2°54.081 14.8104 1.983371 13.880599 -2.458615
2012-03-27 07:18:48 51°16.197 2°54.089 14.8088 1.983062 13.877969 -2.458615
2012-03-27 07:18:53 51°16.204 2°54.099 14.8113 1.982855 13.876394 -2.458615
2012-03-27 07:18:58 51°16.211 2°54.108 14.8159 1.983475 13.881118 -2.458615
2012-03-27 07:19:03 51°16.219 2°54.118 14.8203 1.983784 13.883749 -2.458615
2012-03-27 07:19:08 51°16.228 2°54.129 14.8232 1.98461 13.890855 -2.458615
2012-03-27 07:19:13 51°16.236 2°54.139 14.8262 1.98461 13.890855 -2.458615
2012-03-27 07:19:18 51°16.245 2°54.15 14.8274 1.984403 13.889818 -2.458615
2012-03-27 07:19:23 51°16.254 2°54.16 14.83 1.985023 13.89535 -2.458615
2012-03-27 07:19:28 51°16.263 2°54.171 14.834 1.98461 13.892199 -2.458615
2012-03-27 07:19:33 51°16.272 2°54.183 14.8374 1.985539 13.899557 -2.458615
2012-03-27 07:19:38 51°16.281 2°54.195 14.8368 1.985848 13.902189 -2.458615
2012-03-27 07:19:43 51°16.29 2°54.207 14.8384 1.985848 13.902189 -2.458615
2012-03-27 07:19:47 51°16.297 2°54.218 14.8378 1.986158 13.904822 -2.458615
2012-03-27 07:19:53 51°16.307 2°54.234 14.8395 1.985642 13.900883 -2.458615
2012-03-27 07:19:58 51°16.315 2°54.248 14.8425 1.985952 13.903515 -2.458615
2012-03-27 07:20:03 51°16.323 2°54.262 14.8431 1.986261 13.906147 -2.458615
2012-03-27 07:20:08 51°16.33 2°54.276 14.8434 1.985848 13.902996 -2.458615
2012-03-27 07:20:13 51°16.337 2°54.291 14.847 1.985848 13.902996 -2.458615
2012-03-27 07:20:18 51°16.344 2°54.307 14.8593 1.985642 13.901421 -2.458615
2012-03-27 07:20:23 51°16.35 2°54.322 14.8537 1.989151 13.929016 -2.458615
2012-03-27 07:20:28 51°16.353 2°54.336 14.8545 1.99039 13.939011 -2.458615
2012-03-27 07:20:33 51°16.357 2°54.35 14.8563 1.991525 13.94849 -2.458615
2012-03-27 07:20:38 51°16.359 2°54.362 14.8565 1.99266 13.9577 -2.458615
2012-03-27 07:20:43 51°16.36 2°54.373 14.864 1.99266 13.9577 -2.458615
2012-03-27 07:20:48 51°16.36 2°54.383 14.8638 1.990802 13.943513 -2.458615
2012-03-27 07:20:53 51°16.361 2°54.393 14.8636 1.99008 13.937726 -2.458615
2012-03-27 07:20:58 51°16.36 2°54.401 14.8664 1.989977 13.936668 -2.458615
2012-03-27 07:21:03 51°16.36 2°54.409 14.8674 1.989564 13.933246 -2.458615
2012-03-27 07:21:08 51°16.359 2°54.415 14.8655 1.988222 13.922733 -2.458615
2012-03-27 07:21:13 51°16.357 2°54.421 14.8684 1.988222 13.922733 -2.458615
2012-03-27 07:21:18 51°16.356 2°54.427 14.8674 1.988841 13.927461 -2.458615
2012-03-27 07:21:23 51°16.354 2°54.43 14.8708 1.988532 13.924827 -2.458615
2012-03-27 07:21:28 51°16.352 2°54.433 14.8775 1.98977 13.934823 -2.458615
2012-03-27 07:21:33 51°16.35 2°54.435 14.8717 1.989358 13.93167 -2.458615
2012-03-27 07:21:38 51°16.349 2°54.437 14.88 1.989254 13.930882 -2.458615
2012-03-27 07:21:43 51°16.348 2°54.437 14.8901 1.989254 13.930882 -2.458615
2012-03-27 07:21:47 51°16.347 2°54.437 14.8994 1.991009 13.944549 -2.458615
2012-03-27 07:21:53 51°16.345 2°54.436 14.8957 1.99008 13.937726 -2.458615
2012-03-27 07:21:58 51°16.344 2°54.435 14.8955 1.98719 13.914584 -2.458615
2012-03-27 07:22:03 51°16.343 2°54.434 14.8929 1.989358 13.93167 -2.458615
2012-03-27 07:22:08 51°16.342 2°54.433 14.8924 1.987913 13.920369 -2.458615
2012-03-27 07:22:13 51°16.341 2°54.431 14.8925 1.987913 13.920369 -2.458615
2012-03-27 07:22:18 51°16.34 2°54.43 14.8936 1.986571 13.909857 -2.458615
2012-03-27 07:22:23 51°16.339 2°54.429 14.894 1.98688 13.91222 -2.458615
2012-03-27 07:22:28 51°16.338 2°54.427 14.8941 1.986261 13.907493 -2.458615
2012-03-27 07:22:33 51°16.337 2°54.425 14.9021 1.986364 13.90882 -2.458615
2012-03-27 07:22:38 51°16.335 2°54.423 14.8998 1.987913 13.921447 -2.458615
2012-03-27 07:22:43 51°16.334 2°54.422 14.9028 1.987913 13.921447 -2.458615
2012-03-27 07:22:48 51°16.333 2°54.42 14.9039 1.989667 13.934844 -2.458615
2012-03-27 07:22:53 51°16.332 2°54.418 14.9051 1.988945 13.929597 -2.458615
2012-03-27 07:22:58 51°16.331 2°54.416 14.9024 1.986364 13.909358 -2.458615
2012-03-27 07:23:03 51°16.33 2°54.414 14.9049 1.9875 13.917756 -2.458615
2012-03-27 07:23:08 51°16.329 2°54.412 14.9084 1.987603 13.918544 -2.458615
2012-03-27 07:23:13 51°16.328 2°54.41 14.9061 1.987603 13.918544 -2.458615
2012-03-27 07:23:18 51°16.327 2°54.408 14.9122 1.986571 13.910665 -2.458615
2012-03-27 07:23:23 51°16.326 2°54.405 14.9114 1.988119 13.923292 -2.458615
2012-03-27 07:23:28 51°16.324 2°54.403 14.912 1.986881 13.913836 -2.458615
2012-03-27 07:23:33 51°16.323 2°54.401 14.9145 1.9875 13.918834 -2.458615
2012-03-27 07:23:38 51°16.322 2°54.398 14.9189 1.988222 13.92462 -2.458615
2012-03-27 07:23:43 51°16.321 2°54.396 14.9151 1.988222 13.92462 -2.458615
2012-03-27 07:23:48 51°16.32 2°54.393 14.9229 1.986468 13.910685 -2.458615
2012-03-27 07:23:53 51°16.318 2°54.391 14.9243 1.988016 13.922774 -2.458615
2012-03-27 07:23:58 51°16.317 2°54.389 14.9239 1.988119 13.923832 -2.458615
2012-03-27 07:24:03 51°16.316 2°54.386 14.9234 1.985539 13.903593 -2.458615
2012-03-27 07:24:07 51°16.315 2°54.384 14.9272 1.987706 13.92041 -2.458615
2012-03-27 07:24:13 51°16.314 2°54.381 14.9282 1.987706 13.92041 -2.458615
2012-03-27 07:24:18 51°16.313 2°54.379 14.9319 1.987809 13.921467 -2.458615
2012-03-27 07:24:23 51°16.311 2°54.376 14.9298 1.9875 13.919642 -2.458615
2012-03-27 07:24:28 51°16.311 2°54.374 14.9239 1.986468 13.911762 -2.458615
2012-03-27 07:24:33 51°16.309 2°54.372 14.9273 1.986571 13.91228 -2.458615
2012-03-27 07:24:38 51°16.308 2°54.369 14.9258 1.986158 13.909667 -2.458615
2012-03-27 07:24:43 51°16.307 2°54.367 14.9358 1.986158 13.909667 -2.458615
2012-03-27 07:24:48 51°16.306 2°54.364 14.9369 1.987913 13.923334 -2.458615
2012-03-27 07:24:53 51°16.305 2°54.361 14.9404 1.987706 13.922027 -2.458615
2012-03-27 07:24:58 51°16.304 2°54.359 14.943 1.9875 13.92072 -2.458615
2012-03-27 07:25:03 51°16.303 2°54.357 14.9338 1.985848 13.908111 -2.458615
2012-03-27 07:25:08 51°16.302 2°54.354 14.9397 1.98719 13.918356 -2.458615
2012-03-27 07:25:13 51°16.301 2°54.351 14.9423 1.98719 13.918356 -2.458615
2012-03-27 07:25:18 51°16.299 2°54.349 14.9423 1.987293 13.919144 -2.458615
2012-03-27 07:25:23 51°16.298 2°54.346 14.9463 1.987293 13.919144 -2.458615
2012-03-27 07:25:28 51°16.297 2°54.343 14.9384 1.986674 13.914685 -2.458615
2012-03-27 07:25:33 51°16.296 2°54.341 14.9478 1.9875 13.921259 -2.458615
2012-03-27 07:25:38 51°16.295 2°54.338 14.949 1.986777 13.915742 -2.458615
2012-03-27 07:25:43 51°16.293 2°54.336 14.9457 1.986777 13.915742 -2.458615
2012-03-27 07:25:48 51°16.292 2°54.333 14.9459 1.985332 13.904709 -2.458615
2012-03-27 07:25:53 51°16.291 2°54.33 14.9528 1.985849 13.908649 -2.458615
2012-03-27 07:25:58 51°16.29 2°54.328 14.9505 1.987397 13.92128 -2.458615
2012-03-27 07:26:03 51°16.289 2°54.325 14.9539 1.987293 13.920222 -2.458615
2012-03-27 07:26:07 51°16.288 2°54.323 14.9479 1.985332 13.905248 -2.458615
2012-03-27 07:26:13 51°16.287 2°54.32 14.9611 1.985332 13.905248 -2.458615
2012-03-27 07:26:18 51°16.286 2°54.317 14.9606 1.987087 13.918915 -2.458615
2012-03-27 07:26:23 51°16.284 2°54.315 14.965 1.987293 13.920492 -2.458615
2012-03-27 07:26:28 51°16.283 2°54.312 14.9626 1.986365 13.913667 -2.458615
2012-03-27 07:26:33 51°16.282 2°54.309 14.9648 1.986571 13.915244 -2.458615
2012-03-27 07:26:38 51°16.281 2°54.307 14.9651 1.985023 13.902883 -2.458615
2012-03-27 07:26:43 51°16.28 2°54.305 14.9676 1.985023 13.902883 -2.458615
2012-03-27 07:26:48 51°16.279 2°54.302 14.9661 1.986571 13.914974 -2.458615
2012-03-27 07:26:53 51°16.278 2°54.299 14.9748 1.986158 13.912091 -2.458615
2012-03-27 07:26:58 51°16.277 2°54.297 14.9707 1.985952 13.911054 -2.458615
2012-03-27 07:27:03 51°16.275 2°54.294 14.9746 1.986055 13.911842 -2.458615
2012-03-27 07:27:08 51°16.274 2°54.292 14.9758 1.984816 13.902384 -2.458615
2012-03-27 07:27:13 51°16.273 2°54.289 14.9805 1.984816 13.902384 -2.458615
2012-03-27 07:27:18 51°16.272 2°54.286 14.9816 1.986055 13.912381 -2.458615
2012-03-27 07:27:23 51°16.271 2°54.284 14.9773 1.985436 13.907651 -2.458615
2012-03-27 07:27:28 51°16.27 2°54.282 14.986 1.986055 13.912381 -2.458615
2012-03-27 07:27:33 51°16.269 2°54.279 14.983 1.985023 13.904499 -2.458615
2012-03-27 07:27:38 51°16.268 2°54.277 14.9857 1.986158 13.913438 -2.458615
2012-03-27 07:27:43 51°16.267 2°54.274 14.9862 1.986158 13.913438 -2.458615
2012-03-27 07:27:48 51°16.266 2°54.272 14.9878 1.985539 13.908709 -2.458615
2012-03-27 07:27:53 51°16.265 2°54.269 14.9902 1.985745 13.910555 -2.458615
2012-03-27 07:27:58 51°16.264 2°54.266 14.9963 1.985333 13.907133 -2.458615
2012-03-27 07:28:03 51°16.262 2°54.264 14.9965 1.985952 13.911862 -2.458615
2012-03-27 07:28:07 51°16.262 2°54.261 14.9939 1.985849 13.911343 -2.458615
2012-03-27 07:28:13 51°16.26 2°54.259 14.9911 1.985849 13.911343 -2.458615
2012-03-27 07:28:18 51°16.259 2°54.256 14.9941 1.985849 13.911343 -2.458615
2012-03-27 07:28:23 51°16.258 2°54.254 15.0008 1.986055 13.913189 -2.458615
2012-03-27 07:28:27 51°16.257 2°54.251 14.9953 1.985436 13.90846 -2.458615
2012-03-27 07:28:33 51°16.256 2°54.249 14.9937 1.986365 13.915823 -2.458615
2012-03-27 07:28:38 51°16.255 2°54.246 14.9936 1.985333 13.907941 -2.458615
2012-03-27 07:28:43 51°16.254 2°54.243 15.0054 1.985333 13.907941 -2.458615
2012-03-27 07:28:48 51°16.253 2°54.241 15.0016 1.986674 13.918727 -2.458615
2012-03-27 07:28:53 51°16.252 2°54.238 15.0083 1.985229 13.907422 -2.458615
2012-03-27 07:28:58 51°16.251 2°54.236 14.9994 1.985126 13.906903 -2.458615
2012-03-27 07:29:03 51°16.25 2°54.233 14.9947 1.984507 13.901635 -2.458615
2012-03-27 07:29:08 51°16.249 2°54.23 15.0109 1.986158 13.914516 -2.458615
2012-03-27 07:29:13 51°16.248 2°54.228 15.0095 1.986158 13.914516 -2.458615
2012-03-27 07:29:18 51°16.247 2°54.225 15.0096 1.985126 13.906634 -2.458615
2012-03-27 07:29:23 51°16.246 2°54.223 15.0081 1.985126 13.906634 -2.458615
2012-03-27 07:29:28 51°16.245 2°54.22 15.0157 1.985745 13.911363 -2.458615
2012-03-27 07:29:33 51°16.244 2°54.217 15.0129 1.985436 13.909537 -2.458615
2012-03-27 07:29:38 51°16.243 2°54.215 15.0112 1.985642 13.911114 -2.458615
2012-03-27 07:29:43 51°16.242 2°54.213 15.0054 1.985642 13.911114 -2.458615
2012-03-27 07:29:48 51°16.241 2°54.21 15.0137 1.983991 13.898232 -2.458615
2012-03-27 07:29:53 51°16.24 2°54.207 14.9944 1.984507 13.902173 -2.458615
2012-03-27 07:29:58 51°16.239 2°54.205 15.0012 1.984404 13.901116 -2.458615
2012-03-27 07:30:03 51°16.238 2°54.202 15.011 1.984713 13.904019 -2.458615
2012-03-27 07:30:08 51°16.237 2°54.2 15.0089 1.984817 13.905077 -2.458615
2012-03-27 07:30:13 51°16.236 2°54.197 15.0023 1.984817 13.905077 -2.458615
2012-03-27 07:30:18 51°16.235 2°54.194 15.0211 1.985126 13.907711 -2.458615
2012-03-27 07:30:23 51°16.234 2°54.192 15.026 1.986571 13.919557 -2.458615
2012-03-27 07:30:27 51°16.233 2°54.19 15.0272 1.985952 13.914826 -2.458615
2012-03-27 07:30:33 51°16.232 2°54.186 15.0102 1.983062 13.891946 -2.458615
2012-03-27 07:30:38 51°16.231 2°54.183 15.0173 1.985333 13.909288 -2.458615
2012-03-27 07:30:43 51°16.23 2°54.18 15.031 1.985333 13.909288 -2.458615
2012-03-27 07:30:48 51°16.229 2°54.178 15.0307 1.985539 13.911403 -2.458615
2012-03-27 07:30:53 51°16.228 2°54.176 15.0381 1.985229 13.909308 -2.458615
2012-03-27 07:30:58 51°16.227 2°54.174 15.0213 1.98461 13.904847 -2.458615
2012-03-27 07:31:03 51°16.226 2°54.171 15.0377 1.985952 13.915096 -2.458615
2012-03-27 07:31:08 51°16.225 2°54.168 15.037 1.98492 13.907212 -2.458615
2012-03-27 07:31:13 51°16.224 2°54.165 15.0428 1.98492 13.907212 -2.458615
2012-03-27 07:31:18 51°16.223 2°54.163 15.0271 1.984713 13.905905 -2.458615
2012-03-27 07:31:23 51°16.223 2°54.16 15.0404 1.985229 13.909308 -2.458615
2012-03-27 07:31:28 51°16.221 2°54.158 15.0518 1.985952 13.915365 -2.458615
2012-03-27 07:31:33 51°16.221 2°54.155 15.0504 1.985642 13.91327 -2.458615
2012-03-27 07:31:38 51°16.22 2°54.153 15.0301 1.983888 13.899329 -2.458615
2012-03-27 07:31:43 51°16.219 2°54.15 15.0203 1.983888 13.899329 -2.458615
2012-03-27 07:31:48 51°16.218 2°54.147 15.0135 1.983578 13.896694 -2.458615
2012-03-27 07:31:53 51°16.217 2°54.145 15.0414 1.984507 13.90352 -2.458615
2012-03-27 07:31:58 51°16.216 2°54.141 15.0539 1.986777 13.921943 -2.458615
2012-03-27 07:32:03 51°16.215 2°54.139 15.0538 1.985849 13.915116 -2.458615
2012-03-27 07:32:08 51°16.214 2°54.137 15.0278 1.984094 13.901175 -2.458615
2012-03-27 07:32:13 51°16.213 2°54.135 15.0292 1.984094 13.901175 -2.458615
2012-03-27 07:32:18 51°16.212 2°54.132 15.019 1.98492 13.907481 -2.458615
2012-03-27 07:32:23 51°16.211 2°54.129 15.0325 1.985229 13.910116 -2.458615
2012-03-27 07:32:28 51°16.21 2°54.126 15.0365 1.986261 13.91854 -2.458615
2012-03-27 07:32:33 51°16.209 2°54.123 15.0268 1.983784 13.899617 -2.458615
2012-03-27 07:32:38 51°16.209 2°54.12 15.0262 1.984197 13.902771 -2.458615
2012-03-27 07:32:43 51°16.208 2°54.118 15.0243 1.984197 13.902771 -2.458615
2012-03-27 07:32:47 51°16.207 2°54.115 15.0267 1.983888 13.900406 -2.458615
2012-03-27 07:32:53 51°16.206 2°54.112 15.0244 1.985126 13.910136 -2.458615
2012-03-27 07:32:58 51°16.205 2°54.11 15.0349 1.984507 13.905405 -2.458615
2012-03-27 07:33:03 51°16.204 2°54.107 15.0385 1.985539 13.913559 -2.458615
2012-03-27 07:33:08 51°16.203 2°54.105 15.0443 1.985745 13.915136 -2.458615
2012-03-27 07:33:13 51°16.202 2°54.102 15.0459 1.985745 13.915136 -2.458615
2012-03-27 07:33:18 51°16.201 2°54.099 15.0475 1.985539 13.913829 -2.458615
2012-03-27 07:33:23 51°16.2 2°54.096 15.0565 1.986158 13.91883 -2.458615
2012-03-27 07:33:28 51°16.199 2°54.093 15.0634 1.985849 13.916734 -2.458615
2012-03-27 07:33:33 51°16.199 2°54.091 15.0483 1.985023 13.910695 -2.458615
2012-03-27 07:33:38 51°16.197 2°54.089 15.049 1.985023 13.910426 -2.458615
2012-03-27 07:33:43 51°16.197 2°54.086 15.0562 1.985023 13.910426 -2.458615
2012-03-27 07:33:48 51°16.196 2°54.083 15.0677 1.985229 13.912003 -2.458615
2012-03-27 07:33:53 51°16.195 2°54.081 15.0844 1.985642 13.915696 -2.458615
2012-03-27 07:33:58 51°16.194 2°54.078 15.089 1.986468 13.922544 -2.458615
2012-03-27 07:34:03 51°16.193 2°54.075 15.0921 1.985849 13.917813 -2.458615
2012-03-27 07:34:08 51°16.192 2°54.072 15.071 1.983578 13.899926 -2.458615
2012-03-27 07:34:13 51°16.191 2°54.07 15.0578 1.983578 13.899926 -2.458615
2012-03-27 07:34:18 51°16.19 2°54.066 15.0683 1.983681 13.900176 -2.458615
2012-03-27 07:34:23 51°16.189 2°54.064 15.0874 1.986365 13.921486 -2.458615
2012-03-27 07:34:28 51°16.188 2°54.061 15.0993 1.986158 13.920448 -2.458615
2012-03-27 07:34:33 51°16.188 2°54.058 15.1065 1.986365 13.922295 -2.458615
2012-03-27 07:34:38 51°16.187 2°54.056 15.1224 1.986571 13.923873 -2.458615
2012-03-27 07:34:43 51°16.186 2°54.053 15.1185 1.986571 13.923873 -2.458615
2012-03-27 07:34:47 51°16.185 2°54.051 15.1261 1.985539 13.915986 -2.458615
2012-03-27 07:34:53 51°16.184 2°54.047 15.1267 1.986158 13.920718 -2.458615
2012-03-27 07:34:58 51°16.183 2°54.044 15.0923 1.983991 13.903888 -2.458615
2012-03-27 07:35:03 51°16.182 2°54.042 15.0901 1.98461 13.90835 -2.458615
2012-03-27 07:35:08 51°16.181 2°54.039 15.0883 1.98492 13.910715 -2.458615
2012-03-27 07:35:13 51°16.18 2°54.036 15.0997 1.98492 13.910715 -2.458615
2012-03-27 07:35:18 51°16.179 2°54.033 15.0953 1.985745 13.917294 -2.458615
2012-03-27 07:35:23 51°16.178 2°54.03 15.0983 1.985642 13.916505 -2.458615
2012-03-27 07:35:28 51°16.177 2°54.027 15.1013 1.98492 13.911254 -2.458615
2012-03-27 07:35:33 51°16.176 2°54.025 15.1199 1.986365 13.922835 -2.458615
2012-03-27 07:35:38 51°16.176 2°54.022 15.126 1.985229 13.914699 -2.458615
2012-03-27 07:35:43 51°16.175 2°54.019 15.138 1.985229 13.914699 -2.458615
2012-03-27 07:35:48 51°16.174 2°54.016 15.1329 1.986158 13.921797 -2.458615
2012-03-27 07:35:53 51°16.173 2°54.014 15.1329 1.986262 13.923126 -2.458615
2012-03-27 07:35:58 51°16.172 2°54.011 15.1006 1.984197 13.906812 -2.458615
2012-03-27 07:36:03 51°16.171 2°54.008 15.1248 1.985642 13.917854 -2.458615
2012-03-27 07:36:08 51°16.17 2°54.005 15.126 1.984094 13.906024 -2.458615
2012-03-27 07:36:13 51°16.169 2°54.002 15.1172 1.984094 13.906024 -2.458615
2012-03-27 07:36:18 51°16.168 2°53.999 15.1284 1.983681 13.903139 -2.458615
2012-03-27 07:36:23 51°16.167 2°53.996 15.1258 1.984404 13.908659 -2.458615
2012-03-27 07:36:28 51°16.166 2°53.994 15.13 1.98461 13.910237 -2.458615
2012-03-27 07:36:33 51°16.165 2°53.991 15.1076 1.984817 13.912353 -2.458615
2012-03-27 07:36:38 51°16.164 2°53.988 15.0886 1.984094 13.906293 -2.458615
2012-03-27 07:36:43 51°16.164 2°53.985 15.0907 1.984094 13.906293 -2.458615
2012-03-27 07:36:48 51°16.162 2°53.983 15.0761 1.984197 13.907082 -2.458615
2012-03-27 07:36:53 51°16.162 2°53.98 15.1051 1.983165 13.899465 -2.458615
2012-03-27 07:36:58 51°16.161 2°53.977 15.0826 1.984817 13.912893 -2.458615
2012-03-27 07:37:03 51°16.16 2°53.974 15.0763 1.984197 13.90816 -2.458615
2012-03-27 07:37:07 51°16.159 2°53.972 15.0712 1.984094 13.907372 -2.458615
2012-03-27 07:37:13 51°16.158 2°53.969 15.064 1.984094 13.907372 -2.458615
2012-03-27 07:37:18 51°16.157 2°53.966 15.0758 1.984094 13.907372 -2.458615
2012-03-27 07:37:23 51°16.156 2°53.963 15.0757 1.985333 13.917106 -2.458615
2012-03-27 07:37:28 51°16.155 2°53.961 15.0883 1.984713 13.912373 -2.458615
2012-03-27 07:37:33 51°16.155 2°53.96 15.0934 1.984817 13.913162 -2.458615
2012-03-27 07:37:38 51°16.153 2°53.955 15.1104 1.985642 13.920282 -2.458615
2012-03-27 07:37:43 51°16.152 2°53.952 15.1166 1.985642 13.920282 -2.458615
2012-03-27 07:37:48 51°16.152 2°53.949 15.0985 1.985436 13.918974 -2.458615
2012-03-27 07:37:53 51°16.15 2°53.946 15.0871 1.983785 13.906084 -2.458615
2012-03-27 07:37:58 51°16.15 2°53.943 15.1068 1.984713 13.913183 -2.458615
2012-03-27 07:38:03 51°16.149 2°53.94 15.1285 1.986262 13.926095 -2.458615
2012-03-27 07:38:08 51°16.148 2°53.937 15.1449 1.985539 13.920572 -2.458615
2012-03-27 07:38:13 51°16.147 2°53.935 15.1302 1.985539 13.920572 -2.458615
2012-03-27 07:38:18 51°16.146 2°53.931 15.1303 1.984094 13.909529 -2.458615
2012-03-27 07:38:23 51°16.145 2°53.929 15.1272 1.983991 13.90847 -2.458615
2012-03-27 07:38:28 51°16.144 2°53.925 15.1331 1.984713 13.913992 -2.458615
2012-03-27 07:38:33 51°16.143 2°53.923 15.1519 1.985952 13.923728 -2.458615
2012-03-27 07:38:38 51°16.142 2°53.92 15.1391 1.984301 13.911106 -2.458615
2012-03-27 07:38:43 51°16.141 2°53.918 15.1198 1.984301 13.911106 -2.458615
2012-03-27 07:38:48 51°16.14 2°53.915 15.1062 1.983372 13.903737 -2.458615
2012-03-27 07:38:53 51°16.139 2°53.912 15.119 1.983475 13.904257 -2.458615
2012-03-27 07:38:58 51°16.138 2°53.909 15.0951 1.98461 13.913473 -2.458615
2012-03-27 07:39:03 51°16.137 2°53.907 15.1275 1.985126 13.917957 -2.458615
2012-03-27 07:39:07 51°16.137 2°53.904 15.1321 1.983578 13.906124 -2.458615
2012-03-27 07:39:13 51°16.136 2°53.9 15.1317 1.983578 13.906124 -2.458615
2012-03-27 07:39:18 51°16.135 2°53.897 15.1414 1.985023 13.917168 -2.458615
2012-03-27 07:39:23 51°16.134 2°53.895 15.1629 1.985023 13.917707 -2.458615
2012-03-27 07:39:28 51°16.133 2°53.892 15.1801 1.986984 13.933238 -2.458615
2012-03-27 07:39:33 51°16.131 2°53.89 15.1877 1.983681 13.908261 -2.458615
2012-03-27 07:39:38 51°16.129 2°53.887 15.2127 1.985952 13.925888 -2.458615
2012-03-27 07:39:43 51°16.127 2°53.885 15.2071 1.985952 13.925888 -2.458615
2012-03-27 07:39:48 51°16.124 2°53.882 15.1859 1.983991 13.910628 -2.458615
2012-03-27 07:39:53 51°16.122 2°53.88 15.1767 1.982856 13.90168 -2.458615
2012-03-27 07:39:58 51°16.119 2°53.88 15.1801 1.982443 13.898255 -2.458615
2012-03-27 07:40:03 51°16.116 2°53.879 15.1783 1.983372 13.905894 -2.458615
2012-03-27 07:40:08 51°16.113 2°53.879 15.1848 1.983888 13.909569 -2.458615
2012-03-27 07:40:13 51°16.11 2°53.879 15.2014 1.983888 13.909569 -2.458615
2012-03-27 07:40:18 51°16.107 2°53.88 15.1909 1.984301 13.912994 -2.458615
2012-03-27 07:40:23 51°16.105 2°53.881 15.1846 1.98172 13.892734 -2.458615
2012-03-27 07:40:28 51°16.102 2°53.882 15.1903 1.982649 13.899833 -2.458615
2012-03-27 07:40:33 51°16.1 2°53.884 15.2007 1.983888 13.909569 -2.458615
2012-03-27 07:40:38 51°16.097 2°53.887 15.1845 1.981411 13.890367 -2.458615
2012-03-27 07:40:43 51°16.095 2°53.889 15.1819 1.981411 13.890367 -2.458615
2012-03-27 07:40:48 51°16.094 2°53.892 15.1819 1.982753 13.900891 -2.458615
2012-03-27 07:40:53 51°16.092 2°53.895 15.1886 1.982546 13.899583 -2.458615
2012-03-27 07:40:58 51°16.091 2°53.898 15.1944 1.981617 13.892753 -2.458615
2012-03-27 07:41:03 51°16.09 2°53.902 15.2064 1.984197 13.913015 -2.458615
2012-03-27 07:41:08 51°16.09 2°53.906 15.1917 1.982133 13.896697 -2.458615
2012-03-27 07:41:13 51°16.09 2°53.909 15.1744 1.982133 13.896697 -2.458615
2012-03-27 07:41:18 51°16.09 2°53.912 15.1978 1.983062 13.904067 -2.458615
2012-03-27 07:41:23 51°16.09 2°53.915 15.1982 1.981824 13.8946 -2.458615
2012-03-27 07:41:28 51°16.092 2°53.919 15.17 1.981721 13.893542 -2.458615
2012-03-27 07:41:33 51°16.093 2°53.922 15.1739 1.981308 13.890117 -2.458615
2012-03-27 07:41:38 51°16.095 2°53.926 15.182 1.981927 13.89512 -2.458615
2012-03-27 07:41:43 51°16.096 2°53.929 15.1949 1.981927 13.89512 -2.458615
2012-03-27 07:41:48 51°16.098 2°53.933 15.1727 1.982546 13.900122 -2.458615
2012-03-27 07:41:53 51°16.101 2°53.937 15.204 1.982546 13.899853 -2.458615
2012-03-27 07:41:58 51°16.104 2°53.94 15.2053 1.983269 13.905914 -2.458615
2012-03-27 07:42:03 51°16.108 2°53.945 15.2036 1.981101 13.889078 -2.458615
2012-03-27 07:42:08 51°16.112 2°53.951 15.1667 1.980792 13.886712 -2.458615
2012-03-27 07:42:13 51°16.118 2°53.958 15.1341 1.980792 13.886712 -2.458615
2012-03-27 07:42:18 51°16.123 2°53.965 15.1052 1.979863 13.879344 -2.458615
2012-03-27 07:42:23 51°16.13 2°53.973 15.1066 1.981411 13.891175 -2.458615
2012-03-27 07:42:28 51°16.137 2°53.983 15.1074 1.981721 13.894081 -2.458615
2012-03-27 07:42:33 51°16.144 2°53.993 15.1041 1.982133 13.897775 -2.458615
2012-03-27 07:42:38 51°16.152 2°54.003 15.1114 1.982133 13.897775 -2.458615
2012-03-27 07:42:43 51°16.16 2°54.014 15.1084 1.982133 13.897775 -2.458615
2012-03-27 07:42:48 51°16.167 2°54.025 15.1125 1.983165 13.905934 -2.458615
2012-03-27 07:42:53 51°16.176 2°54.038 15.1254 1.983681 13.910419 -2.458615
2012-03-27 07:42:58 51°16.184 2°54.05 15.1235 1.983269 13.907263 -2.458615
2012-03-27 07:43:03 51°16.192 2°54.063 15.1275 1.983785 13.911477 -2.458615
2012-03-27 07:43:08 51°16.199 2°54.077 15.1301 1.984817 13.919908 -2.458615
2012-03-27 07:43:13 51°16.207 2°54.091 15.1457 1.984817 13.919908 -2.458615
2012-03-27 07:43:18 51°16.215 2°54.105 15.1445 1.983991 13.913865 -2.458615
2012-03-27 07:43:23 51°16.223 2°54.119 15.1552 1.983475 13.90965 -2.458615
2012-03-27 07:43:28 51°16.23 2°54.133 15.1574 1.983372 13.909131 -2.458615
2012-03-27 07:43:33 51°16.238 2°54.147 15.1588 1.982959 13.905974 -2.458615
2012-03-27 07:43:38 51°16.246 2°54.162 15.157 1.981617 13.895447 -2.458615
2012-03-27 07:43:43 51°16.254 2°54.177 15.1491 1.981617 13.895447 -2.458615
2012-03-27 07:43:48 51°16.262 2°54.191 15.1519 1.98234 13.90124 -2.458615
2012-03-27 07:43:53 51°16.27 2°54.206 15.153 1.983165 13.907552 -2.458615
2012-03-27 07:43:58 51°16.277 2°54.222 15.148 1.983372 13.909131 -2.458615
2012-03-27 07:44:03 51°16.284 2°54.239 15.1503 1.983372 13.909131 -2.458615
2012-03-27 07:44:08 51°16.29 2°54.255 15.1328 1.985126 13.922546 -2.458615
2012-03-27 07:44:13 51°16.295 2°54.272 15.1472 1.985126 13.922546 -2.458615
2012-03-27 07:44:18 51°16.299 2°54.288 15.1652 1.988532 13.949402 -2.458615
2012-03-27 07:44:23 51°16.301 2°54.302 15.1897 1.990493 13.964942 -2.458615
2012-03-27 07:44:28 51°16.303 2°54.316 15.1971 1.988119 13.947327 -2.458615
2012-03-27 07:44:33 51°16.303 2°54.329 15.1761 1.988119 13.946515 -2.458615
2012-03-27 07:44:38 51°16.303 2°54.341 15.2021 1.99297 13.984976 -2.458615
2012-03-27 07:44:43 51°16.302 2°54.351 15.2004 1.99297 13.984976 -2.458615
2012-03-27 07:44:47 51°16.301 2°54.359 15.2091 1.991732 13.97523 -2.458615
2012-03-27 07:44:53 51°16.299 2°54.368 15.2047 1.988739 13.952334 -2.458615
2012-03-27 07:44:58 51°16.298 2°54.376 15.2043 1.989668 13.959439 -2.458615
2012-03-27 07:45:03 51°16.295 2°54.382 15.1989 1.986778 13.936794 -2.458615
2012-03-27 07:45:08 51°16.293 2°54.387 15.1966 1.988739 13.952063 -2.458615
2012-03-27 07:45:13 51°16.291 2°54.39 15.2007 1.988739 13.952063 -2.458615
2012-03-27 07:45:18 51°16.289 2°54.393 15.1963 1.987087 13.939162 -2.458615
2012-03-27 07:45:23 51°16.287 2°54.394 15.2081 1.986984 13.937832 -2.458615
2012-03-27 07:45:28 51°16.286 2°54.394 15.2499 1.989152 13.95495 -2.458615
2012-03-27 07:45:33 51°16.284 2°54.392 15.2245 1.987603 13.94338 -2.458615
2012-03-27 07:45:38 51°16.284 2°54.391 15.2167 1.987397 13.94126 -2.458615
2012-03-27 07:45:43 51°16.283 2°54.388 15.2217 1.987397 13.94126 -2.458615
2012-03-27 07:45:48 51°16.283 2°54.385 15.231 1.988636 13.951544 -2.458615
2012-03-27 07:45:53 51°16.282 2°54.383 15.2682 1.988223 13.948657 -2.458615
2012-03-27 07:45:58 51°16.282 2°54.381 15.2643 1.988326 13.949447 -2.458615
2012-03-27 07:46:03 51°16.281 2°54.378 15.2624 1.988016 13.946267 -2.458615
2012-03-27 07:46:08 51°16.281 2°54.376 15.2688 1.987087 13.939162 -2.458615
2012-03-27 07:46:13 51°16.28 2°54.373 15.2856 1.987087 13.939162 -2.458615
2012-03-27 07:46:18 51°16.279 2°54.371 15.2885 1.988842 13.952853 -2.458615
2012-03-27 07:46:23 51°16.279 2°54.368 15.2817 1.988119 13.947597 -2.458615
2012-03-27 07:46:28 51°16.278 2°54.366 15.2817 1.984507 13.919431 -2.458615
2012-03-27 07:46:34 51°16.278 2°54.363 15.2617 1.984507 13.919431 -2.458615
2012-03-27 07:46:39 51°16.277 2°54.36 15.2789 1.985952 13.931021 -2.458615
2012-03-27 07:46:45 51°16.276 2°54.357 15.2818 1.985952 13.931021 -2.458615
2012-03-27 07:46:51 51°16.276 2°54.354 15.2882 1.9875 13.943131 -2.458615
2012-03-27 07:46:56 51°16.275 2°54.351 15.2791 1.987087 13.940244 -2.458615
2012-03-27 07:47:02 51°16.274 2°54.348 15.2756 1.985126 13.924436 -2.458615
2012-03-27 07:47:07 51°16.274 2°54.345 15.2812 1.985126 13.924436 -2.458615
2012-03-27 07:47:11 51°16.273 2°54.343 15.2794 1.983888 13.914965 -2.458615
2012-03-27 07:47:16 51°16.273 2°54.34 15.2784 1.983888 13.914965 -2.458615
2012-03-27 07:47:21 51°16.272 2°54.338 15.2949 1.985642 13.928112 -2.458615
2012-03-27 07:47:27 51°16.271 2°54.335 15.2946 1.987294 13.941282 -2.458615
2012-03-27 07:47:31 51°16.271 2°54.333 15.2979 1.986365 13.934448 -2.458615